GEFSNGP_500_meanwind_000.txt.gz
Wind_Speed
17 19 22 22 22 26 29 26 28 29 31 31 33 33 34 33 32 30 29 29 31 30 27 25 24 25 24 26 31 35 32 31 31 28 25 17 10 17 24 25 25 20 19 19
18 22 22 21 24 27 28 29 30 32 32 32 30 32 33 33 32 28 26 27 29 25 23 22 21 21 22 24 30 32 27 22 20 21 17 15 11 9 12 15 17 19 21 18
20 21 20 18 21 23 26 25 30 32 32 31 32 32 32 32 28 26 27 26 25 22 21 19 16 16 19 22 26 26 20 15 15 18 21 18 16 15 15 18 19 20 21 20
19 18 17 18 20 23 24 25 31 30 29 31 33 34 35 34 30 26 24 25 25 23 20 18 16 14 15 16 17 18 16 12 11 14 17 18 16 18 20 17 17 18 19 17
26 22 21 22 20 23 25 24 31 32 32 34 34 34 34 37 33 29 24 25 25 24 21 18 17 15 13 13 14 14 14 13 12 13 14 16 17 21 22 22 21 18 20 18
27 28 24 27 27 29 30 31 31 30 31 34 37 36 34 37 36 33 26 24 24 24 22 18 15 14 12 9 8 10 12 14 17 18 20 21 20 22 26 26 23 20 18 17
32 31 32 32 32 33 35 36 36 35 34 34 36 37 36 36 37 35 31 25 23 23 24 19 14 13 11 8 6 6 8 10 14 16 17 16 16 20 23 22 20 19 16 16
37 37 37 36 38 39 41 41 40 39 40 40 39 37 37 37 36 36 34 28 22 22 23 20 19 18 17 14 11 10 12 12 13 13 13 12 12 13 13 11 11 10 9 10
41 41 43 43 44 48 50 48 48 47 45 42 40 39 36 37 37 35 36 31 25 25 25 22 21 20 20 19 16 15 14 12 11 10 9 8 7 6 7 9 9 7 8 10
44 45 48 49 53 56 57 56 54 52 52 50 44 41 36 35 38 36 36 36 30 27 26 25 25 24 22 20 18 17 14 11 8 6 5 5 5 5 7 8 9 9 10 11
47 51 52 52 55 57 59 62 62 58 51 49 46 46 44 39 37 40 39 37 33 30 29 29 29 27 26 25 21 19 16 13 10 7 6 5 6 7 7 8 9 9 10 11
50 54 56 55 58 61 61 64 65 60 49 45 51 49 44 43 40 40 39 39 35 33 33 29 29 29 27 25 23 21 20 17 16 13 11 10 10 9 9 10 10 11 11 12
54 56 58 59 63 65 65 65 67 63 59 63 61 46 39 46 43 41 41 40 38 35 33 28 30 31 31 29 27 25 24 22 20 19 18 17 17 16 16 15 15 17 17 16
59 60 60 62 64 69 68 67 64 61 59 64 61 55 49 49 48 44 45 45 40 37 34 33 34 35 36 36 33 31 29 27 24 22 21 21 21 21 21 20 19 19 20 21
60 60 60 61 62 66 70 61 55 60 58 57 53 59 54 50 51 47 46 45 39 38 33 35 35 38 40 40 40 37 34 32 28 26 24 23 23 23 22 22 21 19 20 20
64 62 56 59 65 66 69 67 63 64 67 68 63 60 54 50 47 43 40 40 41 38 37 37 34 31 30 31 35 40 37 35 33 30 28 27 26 24 24 23 22 20 19 19
67 63 64 67 68 75 81 81 70 70 75 73 66 59 51 49 43 40 44 39 42 41 38 35 30 26 25 25 23 29 34 33 30 28 27 27 27 26 24 23 23 21 21 21
69 71 71 72 74 69 66 60 60 61 59 59 62 65 61 50 46 48 48 40 41 40 38 33 30 28 23 23 20 22 25 26 25 23 24 25 25 24 22 22 22 22 22 22
68 65 61 58 59 62 63 56 45 43 47 47 45 55 68 62 51 49 47 42 35 40 43 40 37 37 32 26 23 23 24 24 24 23 22 23 23 22 21 20 20 20 21 22
58 57 58 57 56 54 45 35 38 42 43 43 40 36 47 59 58 52 47 37 34 37 39 40 38 37 31 27 25 24 24 23 22 21 20 21 21 20 20 19 19 19 19 21
59 58 56 54 49 44 42 45 51 51 45 36 35 33 32 42 52 53 50 38 34 31 35 42 44 35 27 25 23 22 22 22 21 20 20 20 19 19 18 18 18 19 20 19
55 52 46 41 39 39 41 44 43 41 37 29 29 29 21 23 32 42 51 46 37 32 33 39 45 38 26 23 20 20 22 22 22 20 19 19 18 17 16 16 16 18 19 18
44 40 38 39 39 38 37 38 39 38 34 26 27 26 17 19 24 31 44 44 37 33 32 33 43 41 31 24 21 23 23 22 21 20 20 19 18 17 16 16 15 16 17 18
39 40 41 42 45 46 48 48 46 43 35 25 17 17 13 19 25 33 40 39 34 29 24 25 41 41 33 28 26 26 26 24 22 20 19 17 18 17 15 14 12 13 16 17
40 41 44 49 51 52 51 47 43 38 31 25 17 11 9 18 27 35 38 35 34 28 22 35 48 40 33 28 25 26 26 25 24 23 22 20 19 18 17 15 12 11 14 15
38 41 45 45 44 45 43 39 37 30 24 20 16 17 12 14 27 36 37 33 31 26 21 37 49 40 33 30 27 27 27 27 26 24 22 21 21 20 19 18 15 12 11 13
36 39 38 37 36 33 33 36 35 26 17 10 7 4 8 20 32 36 34 30 23 17 20 35 48 43 35 33 30 30 30 30 28 25 23 22 22 21 21 20 17 14 12 12

GEFSNGP_500_meanwind_006.txt.gz
Wind_Speed
14 16 17 18 19 21 23 24 26 26 27 29 32 34 35 36 37 38 38 39 40 42 42 41 40 39 37 34 32 31 28 27 26 25 23 19 18 17 15 14 15 18 21 22
13 17 18 18 19 21 23 25 28 30 32 32 34 35 36 37 40 43 42 41 41 42 42 41 40 39 36 32 30 29 26 24 23 22 18 16 15 14 13 11 10 12 16 18
15 18 19 21 23 25 26 28 32 36 39 41 41 40 38 37 39 43 43 42 42 42 42 41 41 40 36 33 31 29 27 24 22 20 17 15 15 14 13 10 9 7 8 11
22 23 25 22 30 31 31 31 35 39 41 44 44 42 42 43 45 45 45 44 43 42 42 42 41 40 37 33 32 30 28 26 23 19 16 14 14 14 13 10 9 9 9 10
27 29 31 32 36 38 40 41 43 43 45 46 46 46 46 48 49 48 47 48 47 44 41 41 41 41 38 33 32 30 28 26 22 18 15 14 14 13 12 13 12 13 12 12
31 34 39 41 43 44 46 49 51 52 54 54 55 55 54 53 52 50 48 48 49 46 42 40 39 39 38 33 31 30 28 24 21 17 15 13 13 13 13 14 16 17 17 16
38 41 43 48 48 49 51 52 54 56 57 58 59 59 59 58 57 53 50 48 48 47 44 39 38 37 36 33 31 30 27 22 19 17 16 14 13 13 13 14 15 16 17 16
41 43 46 49 52 53 55 57 59 60 62 62 63 63 62 61 58 56 52 47 45 45 43 39 37 36 34 33 32 30 27 23 20 18 17 16 15 13 12 12 11 11 11 10
44 47 51 52 53 55 58 60 61 63 64 66 67 68 68 66 64 61 57 50 44 43 43 39 37 37 35 33 33 32 30 27 24 21 19 17 15 13 12 10 9 9 8 7
44 49 53 54 55 58 61 63 66 68 68 70 73 73 69 66 65 65 63 57 48 44 44 41 38 39 34 32 32 33 33 32 29 25 22 19 16 14 12 10 10 9 8 7
47 51 54 57 60 63 66 69 72 74 75 74 74 71 66 66 68 65 61 58 53 48 46 44 42 40 34 32 32 33 34 35 32 29 25 21 17 15 14 12 11 10 9 8
51 54 58 63 67 70 73 75 77 78 77 77 77 78 76 74 74 73 69 63 55 50 48 47 44 41 37 35 34 34 35 37 35 31 28 24 20 17 15 14 13 12 10 9
56 62 66 70 73 75 77 79 79 78 77 78 78 76 72 69 67 68 69 66 60 52 46 44 44 43 40 38 37 36 35 37 38 35 31 28 25 21 18 16 15 14 13 11
66 69 71 73 76 77 77 76 73 68 63 59 56 53 51 49 48 47 48 47 49 50 46 45 45 45 45 44 41 38 36 36 39 38 34 31 29 27 24 21 19 17 17 16
72 74 75 76 77 74 68 61 56 51 48 46 46 46 45 43 40 36 35 35 37 43 46 44 44 45 48 49 43 39 37 34 38 40 37 34 31 29 27 25 23 21 21 20
74 75 76 75 72 64 54 47 45 44 43 42 40 39 38 37 37 37 37 36 34 35 43 44 42 43 46 49 46 39 37 33 34 39 40 38 34 31 28 25 22 20 20 21
76 76 74 71 63 52 46 45 45 47 47 46 46 45 44 42 41 40 39 37 36 33 36 41 41 40 42 45 45 40 39 33 31 36 40 40 38 34 30 26 23 21 20 21
73 71 65 60 54 49 46 47 49 51 52 51 51 49 47 44 41 39 38 37 36 32 32 38 39 37 38 41 42 40 40 32 28 30 36 39 40 39 34 29 25 23 22 21
67 61 56 52 49 47 47 49 52 53 54 53 51 49 47 44 41 38 36 34 32 28 30 37 37 34 35 37 38 39 39 31 26 28 31 36 39 39 36 31 28 26 23 20
57 53 50 47 45 45 48 52 54 54 53 53 52 50 48 45 41 37 33 31 28 25 31 36 35 32 32 34 35 37 36 29 25 25 26 29 32 33 32 29 27 23 20 18
51 49 46 44 43 45 49 52 54 53 52 51 51 51 48 42 37 32 29 24 21 23 31 35 34 31 29 32 34 37 35 29 25 21 21 24 27 28 27 25 23 20 18 16
47 46 43 41 43 46 48 50 51 52 50 50 49 48 44 36 28 23 20 17 18 24 29 31 30 28 28 31 34 36 33 28 23 21 22 25 25 25 24 23 20 17 15 14
44 42 39 39 42 44 44 46 48 49 49 49 45 41 35 27 19 13 11 15 21 25 27 26 26 26 28 32 36 35 31 25 21 22 24 25 24 23 22 20 18 16 14 13
39 36 35 37 38 39 41 43 45 47 48 47 43 36 29 21 12 4 13 21 24 25 25 24 23 24 28 34 36 34 29 24 21 22 24 24 23 21 19 17 15 13 12 10
35 32 31 33 33 34 38 42 45 47 48 46 41 33 24 15 4 11 20 24 24 23 21 19 18 24 31 35 36 32 27 23 22 24 25 23 21 19 17 16 14 12 10 8
30 28 28 28 28 32 37 43 47 50 49 46 39 31 20 11 11 19 22 22 20 17 14 13 15 21 28 33 33 31 27 26 26 26 25 23 21 18 16 15 14 13 11 9
25 24 23 22 25 29 35 42 46 49 47 43 37 28 18 12 18 24 23 21 16 12 10 11 14 20 26 30 32 31 30 29 28 25 23 21 19 17 15 14 14 13 12 12

GEFSNGP_500_meanwind_012.txt.gz
Wind_Speed
16 19 19 19 20 22 24 26 27 28 31 32 34 35 37 38 40 42 45 47 48 49 50 51 51 50 48 45 44 42 39 38 36 35 34 32 30 28 26 24 23 23 22 20
16 20 21 22 24 26 26 27 28 31 33 35 38 41 42 44 46 48 50 51 51 52 52 53 54 53 51 47 44 42 39 36 35 34 32 31 30 28 25 23 22 21 19 17
18 20 22 25 26 26 27 28 31 33 36 37 40 44 47 48 51 54 56 57 58 57 57 56 56 55 53 48 44 42 39 36 34 32 31 30 29 27 25 22 21 19 17 14
23 23 26 28 29 31 33 34 35 37 39 41 44 48 51 54 57 59 61 62 63 63 62 61 60 58 55 50 44 41 39 37 34 32 30 28 27 26 24 22 20 18 15 13
30 31 32 34 35 37 39 40 40 42 43 46 49 53 56 59 63 64 65 67 68 69 69 68 65 61 58 52 46 42 39 38 35 32 29 28 27 25 23 21 18 17 16 15
35 37 38 38 38 39 43 44 44 47 51 54 58 61 62 64 67 69 71 73 74 74 74 72 69 65 61 56 50 45 40 38 36 34 31 28 26 25 23 21 18 17 16 16
36 39 41 42 41 42 44 48 52 55 59 61 64 68 72 74 77 78 79 79 80 80 79 76 74 70 67 62 54 49 45 41 37 36 33 30 27 25 23 20 18 16 16 17
37 39 39 41 44 46 49 53 57 61 66 70 73 75 77 79 81 82 82 80 79 76 73 70 70 69 67 63 57 52 48 44 40 37 36 32 28 26 23 20 18 16 15 15
35 38 41 44 47 51 55 60 64 69 72 75 78 79 80 81 81 78 75 69 62 57 54 53 54 55 55 56 56 54 52 49 44 39 37 34 31 28 24 20 18 17 15 13
37 40 44 48 53 58 63 68 72 74 76 79 81 82 82 79 72 64 54 48 46 45 45 44 45 45 45 47 51 54 54 51 47 42 38 36 33 30 26 21 18 17 15 13
42 47 52 56 61 66 71 74 75 76 77 77 76 73 68 60 51 44 40 40 41 42 42 42 42 42 42 42 45 50 53 52 47 42 40 37 35 33 28 24 20 19 17 16
50 55 60 65 70 75 78 80 79 77 72 65 60 57 52 47 42 41 41 42 43 43 42 42 41 40 39 39 43 46 48 49 47 44 41 39 37 35 31 26 22 21 20 19
59 63 68 74 78 80 82 79 74 66 60 55 52 50 47 44 44 45 46 46 45 45 43 42 41 39 37 35 39 42 44 46 44 43 41 39 38 36 33 29 25 23 23 22
66 71 75 79 81 80 76 69 61 54 51 49 47 45 45 45 46 47 48 49 49 47 45 43 40 38 35 33 35 38 41 43 42 41 41 41 39 37 35 31 28 26 25 24
70 75 78 80 78 72 64 58 51 47 44 43 43 44 46 48 49 49 50 50 48 46 43 40 38 36 34 32 32 35 38 40 40 38 40 41 40 39 37 33 30 30 28 26
75 78 79 77 72 64 56 50 45 42 42 43 45 48 50 52 52 52 51 51 49 46 42 39 36 34 32 31 30 34 37 39 39 37 37 39 41 40 38 35 32 30 28 26
78 79 77 72 64 56 50 45 43 42 43 45 49 52 55 57 57 56 53 51 48 45 41 37 34 32 31 29 29 33 37 38 38 37 37 38 39 40 38 35 33 31 30 28
77 74 69 63 59 52 45 42 41 42 44 49 53 57 60 61 60 56 51 48 43 38 34 32 30 29 28 28 28 33 37 38 36 36 36 36 37 39 39 37 34 32 30 27
72 67 61 57 52 47 42 39 40 43 48 52 57 60 60 58 55 51 46 41 35 29 25 24 24 24 23 25 29 34 37 37 35 35 35 35 36 37 39 38 35 32 29 26
66 60 56 50 44 40 37 37 41 47 51 55 57 57 56 53 48 43 37 31 24 18 14 14 15 19 21 25 31 35 36 35 35 35 33 34 34 35 37 38 36 33 29 26
62 56 50 44 38 35 35 39 44 49 53 54 53 54 52 47 42 36 29 22 15 8 2 6 12 17 22 29 35 36 35 34 34 33 33 32 32 33 35 36 35 33 31 28
58 52 45 38 33 32 35 40 45 49 51 50 50 49 47 43 39 33 25 20 15 12 10 11 15 21 28 34 36 36 35 34 34 33 31 29 28 29 31 33 34 34 31 28
55 47 40 34 31 31 35 40 44 47 48 47 44 41 40 38 36 32 27 23 20 18 16 17 20 27 32 34 35 35 34 33 32 30 27 25 25 26 28 31 32 33 31 28
50 43 36 31 29 31 34 38 43 46 45 41 38 35 34 34 32 30 28 25 23 20 20 22 26 29 31 32 33 33 33 33 31 27 24 21 21 23 26 28 29 29 27 25
47 40 33 29 28 30 34 38 41 43 41 36 32 30 29 30 30 30 29 27 24 22 22 23 24 26 28 31 32 33 33 31 27 24 21 19 20 22 24 25 24 24 22 20
44 36 30 28 28 30 33 36 40 41 38 32 29 27 27 27 27 26 25 24 21 18 18 19 23 26 29 31 33 33 31 28 25 22 21 21 23 24 24 23 22 21 20 18
40 32 26 24 24 27 30 34 37 39 36 32 29 26 26 25 25 25 23 21 18 15 15 18 23 27 30 31 31 30 27 25 22 22 22 23 24 24 22 21 20 19 17 15

GEFSNGP_500_meanwind_018.txt.gz
Wind_Speed
20 22 23 23 23 24 27 30 32 33 35 36 38 40 43 45 47 49 51 52 54 55 56 57 58 58 58 58 58 58 58 58 56 54 53 50 47 44 42 39 35 33 32 31
21 23 24 25 26 27 29 32 34 36 39 40 42 44 46 48 51 53 55 58 60 61 62 63 64 64 63 62 62 63 63 62 61 59 57 55 52 48 44 40 36 33 32 30
24 25 27 28 30 31 33 35 37 40 42 43 45 47 49 52 55 58 60 62 64 65 66 66 67 68 70 70 70 70 69 68 66 64 62 59 55 50 46 42 38 34 32 29
28 29 30 32 33 35 38 40 42 44 46 47 49 51 54 58 61 64 67 69 72 74 76 78 80 81 81 79 79 78 76 74 72 70 67 63 57 50 46 42 38 35 32 29
30 32 34 36 37 39 42 45 47 49 51 54 58 60 61 66 70 73 76 79 81 83 85 86 87 87 86 85 84 82 80 77 74 71 67 63 56 49 46 43 40 36 32 29
32 33 35 36 38 41 45 49 51 55 59 62 66 69 71 74 77 79 81 82 84 84 85 85 85 85 85 82 79 75 71 67 63 61 59 57 54 49 47 44 41 38 33 30
30 32 35 37 40 45 49 53 58 63 67 71 75 78 80 82 83 83 81 79 77 74 72 71 70 69 68 65 60 55 52 49 46 46 47 48 50 49 48 45 43 39 34 31
31 34 37 42 46 50 55 61 66 71 75 79 82 83 83 81 77 72 67 63 60 58 54 52 51 50 48 44 40 38 35 33 33 33 34 38 44 48 48 46 44 40 35 31
36 39 44 49 54 59 64 69 74 78 81 83 83 79 73 66 60 55 51 49 47 46 44 42 42 42 40 37 35 32 31 30 30 30 30 31 38 47 50 46 44 41 36 32
41 45 49 54 60 65 70 75 79 81 80 77 71 63 56 51 47 44 42 43 43 43 42 41 40 39 39 38 37 35 34 33 32 31 30 30 34 45 50 47 44 42 37 33
47 51 55 59 65 71 76 78 79 76 70 62 55 50 46 44 43 43 44 45 45 46 47 46 45 43 42 41 40 39 38 35 33 31 30 30 33 44 50 45 42 41 37 32
51 56 61 65 70 75 78 77 73 65 55 47 46 45 44 45 46 47 48 50 51 53 53 51 50 47 44 43 42 40 38 35 33 32 30 31 33 42 49 46 42 41 37 33
55 59 64 69 73 75 75 70 61 51 45 42 42 45 48 49 50 51 53 55 56 56 56 55 52 49 46 43 42 39 36 33 32 31 29 28 31 40 46 46 43 43 38 36
58 63 67 71 74 73 69 60 50 42 40 42 45 48 51 52 54 55 56 56 57 57 55 54 50 47 43 42 39 37 34 31 29 28 27 25 29 38 43 43 43 42 40 37
60 65 70 74 74 69 61 51 42 38 40 43 47 50 53 53 54 54 55 56 55 54 51 47 43 39 36 34 33 32 30 27 26 25 23 23 29 36 40 42 44 43 40 37
62 67 72 75 72 65 54 44 39 39 42 46 48 51 52 52 54 56 56 55 53 51 46 40 34 30 28 27 28 27 26 24 23 21 21 25 31 36 39 43 45 44 41 37
65 70 74 75 71 61 49 41 39 42 45 48 50 52 52 54 56 55 54 52 50 47 42 35 28 23 20 20 21 22 23 22 20 20 23 27 33 36 38 42 43 42 39 36
68 73 75 74 67 57 45 39 39 43 47 50 52 52 53 54 54 53 52 50 47 43 39 31 23 15 11 13 17 20 22 21 21 23 26 30 33 36 39 42 42 40 39 36
69 73 74 69 62 53 44 40 41 44 48 50 51 51 51 51 51 49 49 47 43 39 35 28 19 9 3 9 16 20 22 22 24 28 30 32 35 37 38 40 40 38 37 34
69 72 72 65 56 48 42 40 41 44 47 50 50 49 48 47 47 46 46 44 41 38 34 26 17 8 5 12 19 22 23 27 30 32 33 33 35 37 37 38 39 37 35 32
69 71 70 63 52 44 40 39 41 44 47 49 49 49 47 46 44 43 43 41 39 36 30 25 16 12 13 18 22 26 31 34 34 34 33 34 35 36 36 36 36 35 32 30
69 71 68 61 50 41 37 38 40 43 45 46 47 47 46 43 41 40 40 39 37 33 27 23 18 17 21 26 31 35 36 36 35 34 34 34 34 33 32 32 34 33 30 28
68 69 66 59 48 39 35 36 39 41 43 44 45 44 43 42 41 38 37 36 34 31 25 20 19 23 28 33 35 37 37 36 34 33 32 32 31 29 29 31 32 32 29 27
67 67 64 57 47 38 33 34 37 39 40 42 43 42 41 40 38 36 34 33 31 27 24 22 22 26 31 33 35 35 34 33 31 30 30 29 27 26 26 28 30 30 28 26
66 66 62 55 45 36 31 32 35 37 37 38 39 39 39 39 36 33 31 28 26 23 22 22 24 26 29 32 33 32 31 30 28 27 26 24 22 22 23 25 27 28 27 26
65 65 60 54 46 36 31 32 35 36 36 35 35 36 37 36 33 30 27 24 21 20 20 22 24 26 28 29 29 27 27 26 24 22 21 20 19 19 20 22 23 24 25 24
63 63 57 50 43 35 30 30 33 35 35 35 34 34 34 33 31 28 24 21 19 19 19 21 23 24 25 25 24 23 22 21 19 18 17 16 16 17 18 19 20 21 20 20

GEFSNGP_500_meanwind_024.txt.gz
Wind_Speed
19 20 21 22 23 24 26 28 29 32 35 38 40 42 44 46 48 50 53 55 57 59 61 63 65 67 69 70 71 73 73 74 74 75 74 72 69 66 62 58 53 48 44 41
20 21 23 24 24 26 27 29 32 35 39 42 45 48 50 53 57 60 62 65 67 69 71 73 75 76 77 78 79 80 80 80 80 81 81 78 74 70 67 63 59 55 50 47
22 24 26 26 26 29 31 33 36 41 45 49 52 55 58 62 65 69 72 75 77 80 81 82 82 81 81 81 82 83 84 84 85 85 85 84 81 78 75 71 67 61 55 52
23 25 25 27 29 33 36 38 42 47 50 54 58 62 66 70 75 77 79 80 79 77 73 68 64 61 61 62 63 66 69 72 75 79 80 81 81 80 78 76 72 67 62 57
24 26 31 30 34 37 41 44 48 52 56 60 64 68 72 75 78 77 73 67 61 54 48 44 43 43 43 43 44 45 47 49 52 56 60 64 67 69 71 72 71 68 63 58
28 30 33 37 40 43 47 51 55 59 63 67 72 75 75 73 69 62 55 48 44 41 42 44 44 44 44 43 42 41 41 41 40 41 43 46 49 53 56 59 62 62 60 56
30 33 37 40 44 47 51 56 60 64 69 73 76 76 72 63 55 48 43 42 43 44 45 46 46 47 46 45 43 43 42 40 38 36 35 34 35 37 40 44 48 53 54 52
33 36 41 45 48 51 55 60 65 69 73 75 74 68 60 51 45 43 43 44 45 46 46 47 48 48 46 45 45 45 44 41 38 35 33 31 29 28 29 31 35 41 47 50
36 39 43 48 52 55 60 64 69 72 74 73 68 58 49 44 43 44 45 46 47 48 49 49 49 49 48 47 46 46 44 42 39 36 34 31 28 26 25 26 28 33 43 50
39 42 45 49 54 58 63 68 72 74 73 67 58 50 44 43 44 45 47 48 50 51 51 50 50 50 50 49 48 47 44 42 41 38 34 31 28 27 25 24 23 27 39 47
43 45 48 52 57 62 67 71 74 72 66 59 51 46 44 44 46 48 50 51 52 52 52 52 50 49 48 47 46 45 44 43 41 37 34 32 29 27 26 25 24 25 35 45
45 48 52 56 60 65 69 72 72 67 59 50 47 45 45 46 48 50 52 53 53 54 53 52 50 48 46 46 45 43 41 39 36 36 34 32 30 28 26 25 25 26 32 41
46 50 54 58 63 68 72 72 68 61 52 46 44 45 47 48 50 52 54 54 54 53 52 49 48 46 44 43 41 38 35 33 31 31 31 31 29 27 26 24 23 24 28 37
49 52 56 60 64 69 72 71 64 55 47 44 45 46 48 50 53 54 55 54 53 51 48 46 45 42 39 36 33 30 27 25 25 27 28 28 27 26 24 24 23 22 27 34
49 53 57 61 66 71 72 69 61 50 43 43 45 47 50 52 54 54 54 53 51 48 46 44 40 36 32 29 25 21 18 18 19 24 26 27 26 25 23 23 22 23 28 34
49 54 58 63 67 71 72 68 58 47 42 43 46 49 51 54 54 52 52 51 49 46 42 39 35 30 26 21 16 12 9 12 17 22 24 25 24 23 23 22 22 25 30 35
50 54 59 63 68 72 71 65 55 45 43 46 48 51 53 53 51 50 50 48 46 43 39 34 29 24 18 13 6 2 6 11 18 22 23 22 22 22 22 23 24 29 34 38
51 55 60 64 69 72 70 62 51 44 44 46 49 52 52 51 50 49 48 46 44 40 36 32 27 21 15 10 6 7 11 16 20 21 21 21 21 22 23 25 29 35 38 41
51 55 59 64 69 71 68 60 49 43 44 47 49 51 51 50 48 47 46 44 41 38 35 31 27 22 17 14 13 14 17 19 20 20 21 22 23 24 27 30 35 37 39 40
50 54 58 63 68 70 67 59 48 42 44 47 49 49 48 47 45 44 43 43 41 39 35 30 27 24 22 20 20 21 22 22 23 23 24 26 28 29 32 36 37 38 38 38
50 53 57 62 66 68 65 57 47 42 43 46 48 47 46 45 42 41 42 41 39 37 34 31 27 26 24 24 25 26 27 28 29 29 31 31 32 33 36 38 37 37 36 36
49 52 56 60 64 66 64 56 47 41 42 44 45 44 42 40 38 38 39 38 37 36 34 31 29 28 28 29 30 32 32 32 32 32 32 32 33 34 35 35 35 34 34 33
48 51 54 58 62 64 62 55 45 39 39 41 42 41 39 37 36 35 35 35 34 33 32 31 31 30 30 31 32 33 33 33 33 33 33 33 32 32 32 32 32 30 29 29
47 49 53 56 60 62 61 54 43 37 36 38 38 37 35 33 31 31 32 31 30 30 30 30 30 30 30 30 31 31 31 32 32 31 30 29 28 28 29 29 28 28 27 27
46 48 51 54 57 60 61 54 43 34 32 33 33 33 31 30 28 27 27 27 27 27 26 26 26 27 26 26 26 27 27 27 26 25 24 24 25 25 26 26 25 25 25 24
45 47 49 52 55 57 59 55 44 33 28 28 28 28 27 25 24 22 22 23 24 24 23 23 23 23 23 23 22 22 22 21 21 20 20 21 22 22 23 22 23 23 22 22
44 45 48 50 53 55 57 54 46 34 27 25 25 24 23 22 20 18 18 18 19 20 20 19 19 19 19 19 19 19 18 17 17 17 17 18 19 20 20 20 20 20 20 19

GEFSNGP_500_meanwind_030.txt.gz
Wind_Speed
15 14 14 17 21 24 27 30 34 38 42 47 49 52 55 57 60 63 65 68 70 72 74 75 75 74 73 71 69 67 65 64 64 65 67 69 71 73 75 75 75 74 72 69
17 16 16 19 22 25 31 36 40 42 45 50 54 56 58 61 64 67 71 73 74 74 73 71 68 64 59 56 52 49 47 45 44 45 46 49 52 57 62 67 71 73 75 74
20 19 19 22 25 30 35 39 44 47 49 52 55 59 62 65 68 72 73 72 70 66 62 58 53 49 47 44 43 41 40 40 40 40 40 39 40 42 45 49 55 62 67 70
24 23 23 27 30 34 38 41 46 48 51 55 59 62 64 67 69 70 68 64 59 55 50 47 45 43 43 42 43 43 43 43 43 42 41 40 40 39 38 39 42 46 53 59
26 25 29 34 35 39 42 45 50 53 56 60 63 65 66 66 66 63 58 53 50 47 45 44 44 45 46 46 46 45 45 45 45 44 44 43 42 40 39 38 37 38 39 45
28 30 33 36 40 44 47 48 53 57 60 62 65 68 66 63 58 52 49 47 47 47 47 47 48 48 49 48 48 48 48 47 47 46 45 44 42 40 39 37 36 35 34 35
29 32 37 39 44 46 48 51 54 57 60 64 68 67 64 57 50 47 46 47 48 49 50 51 51 51 51 51 52 51 51 49 48 47 46 44 42 39 38 36 35 34 32 32
32 35 39 42 46 49 52 55 58 61 64 67 67 62 56 51 48 47 48 50 51 53 53 53 53 54 54 53 52 52 51 50 48 46 44 42 39 37 36 34 33 32 30 30
35 37 41 45 48 51 55 58 61 63 66 67 64 57 51 48 47 49 51 53 54 55 55 54 54 54 54 53 52 51 49 48 45 42 41 38 36 35 34 33 31 30 28 27
37 39 43 47 50 52 55 59 61 64 66 65 60 54 49 48 50 52 54 54 55 55 56 55 55 54 53 51 49 47 45 43 41 38 36 35 33 32 31 30 29 28 27 26
39 42 44 46 50 53 56 59 62 64 65 62 57 51 49 50 52 53 55 56 56 55 55 53 51 48 46 45 43 41 38 36 35 34 33 31 30 29 28 28 27 26 25 24
41 44 46 49 51 54 57 60 62 64 63 58 53 49 49 51 53 55 56 56 55 54 51 49 47 45 42 39 36 33 31 29 27 26 25 25 25 25 25 25 24 23 22 22
42 44 46 48 51 54 57 60 63 63 62 57 51 48 49 51 53 54 55 55 55 52 49 48 45 41 36 32 29 26 23 21 20 18 18 18 19 20 21 21 20 19 19 20
43 44 46 48 51 55 58 60 62 61 59 54 48 47 49 51 52 53 54 54 53 51 48 45 42 38 33 28 23 19 16 14 11 10 11 13 14 16 18 18 17 16 15 16
43 45 46 48 51 54 57 59 60 60 57 51 46 46 48 50 51 52 53 53 52 50 47 44 40 35 31 26 21 16 12 8 3 3 7 10 12 15 15 14 13 12 12 12
42 43 45 47 50 53 56 58 60 60 55 49 45 45 47 48 50 51 52 52 51 50 47 43 39 35 30 25 20 16 12 8 6 7 9 11 13 14 14 13 13 12 12 15
42 43 45 47 50 53 56 58 60 60 54 47 44 44 44 46 48 49 50 50 50 49 46 43 39 35 30 25 21 18 16 13 13 13 14 14 14 14 14 14 13 13 15 19
42 44 46 48 51 53 55 57 59 59 53 47 43 42 42 44 46 47 48 48 49 48 46 42 38 34 30 26 22 20 18 16 15 15 15 15 15 15 14 14 16 19 20 22
41 43 45 47 50 52 54 56 57 58 53 46 42 41 40 41 42 44 45 45 46 47 46 43 39 35 31 28 24 21 18 17 16 15 15 15 16 16 17 18 20 21 22 25
40 42 44 47 49 51 53 54 56 57 53 46 41 39 38 38 38 39 41 42 43 44 45 43 39 37 34 32 29 25 21 18 16 15 15 15 16 18 19 20 21 22 24 27
40 41 43 46 48 50 51 53 54 55 54 47 41 37 35 34 34 35 36 37 39 40 41 41 39 38 36 33 31 29 26 24 22 20 19 19 21 22 23 24 26 27 29 30
39 41 42 45 47 48 50 51 52 54 53 48 40 35 33 30 29 30 32 34 34 35 37 38 37 36 35 34 33 31 29 28 27 27 27 27 28 28 29 29 30 30 29 29
39 40 42 44 45 47 48 49 50 52 52 49 41 35 31 28 27 26 27 28 30 30 31 32 32 32 32 31 31 31 31 30 29 29 29 29 29 29 29 29 29 29 27 26
38 40 41 43 45 46 46 46 47 49 51 49 43 36 29 26 24 23 23 24 25 26 26 26 27 27 28 28 28 28 28 28 28 28 28 27 27 27 27 26 26 25 24 24
39 40 41 42 43 44 44 44 44 46 48 48 43 36 30 25 22 20 19 19 20 21 22 22 21 22 23 23 23 24 24 23 23 24 24 23 23 23 22 22 21 21 21 21
39 40 41 42 42 43 43 42 42 43 46 46 43 36 30 25 21 18 16 15 15 16 17 17 17 17 18 18 18 18 18 17 17 17 17 17 17 17 18 18 18 18 18 18
39 39 40 41 42 42 42 41 41 41 43 45 43 37 30 25 20 17 15 13 12 12 12 13 13 13 13 13 13 12 12 12 11 11 11 12 12 13 14 14 15 15 15 15

GEFSNGP_500_meanwind_036.txt.gz
Wind_Speed
16 18 19 19 19 22 25 28 32 35 38 41 43 46 50 53 57 59 61 64 65 65 64 62 59 58 56 55 53 53 51 50 48 46 44 42 40 39 39 40 43 47 51 57
16 19 20 19 20 24 27 30 32 35 38 41 44 47 50 54 57 60 61 62 61 60 58 56 54 54 53 53 53 53 52 51 50 48 46 43 41 39 38 38 39 40 42 44
17 20 21 21 24 28 31 33 36 39 42 45 47 49 53 57 59 61 60 59 56 54 53 52 53 54 55 55 55 55 55 54 53 51 49 47 45 42 41 40 40 39 38 38
22 25 26 27 30 33 36 38 40 43 46 49 51 53 55 58 59 58 56 53 51 51 52 54 56 57 58 58 57 57 56 55 54 52 50 49 47 45 43 40 38 38 38 37
27 29 31 32 33 36 39 41 43 45 48 50 53 53 53 56 57 55 51 51 52 53 55 57 58 59 58 57 56 56 55 54 52 51 50 49 47 45 43 42 40 39 38 37
27 29 32 33 35 38 40 42 45 47 50 53 56 57 56 57 54 50 50 51 53 55 56 58 58 58 57 55 54 53 51 50 50 49 48 47 46 45 43 42 41 39 38 37
27 30 32 35 38 39 41 44 47 50 54 57 58 59 59 55 50 48 50 52 54 56 57 58 57 56 55 54 52 51 48 46 44 43 43 43 43 43 43 42 41 39 39 38
29 32 34 36 38 41 43 46 50 52 55 57 57 58 56 52 48 48 50 52 54 55 56 56 56 55 53 51 48 46 44 41 39 37 37 38 38 39 40 39 39 38 38 37
29 32 34 37 41 44 46 48 50 52 54 56 57 56 53 49 47 48 50 52 54 56 56 55 54 52 51 47 45 42 38 35 32 30 29 30 31 33 35 35 35 35 35 34
28 31 35 38 40 42 44 46 49 51 54 55 56 55 51 48 47 47 49 51 54 56 56 54 52 50 48 46 42 38 34 30 27 24 23 22 23 25 27 28 29 29 30 30
28 31 34 36 38 40 43 46 48 50 53 55 56 55 51 47 46 47 48 50 53 55 54 53 51 48 45 43 39 35 31 26 22 18 16 15 15 17 19 21 24 25 25 25
29 31 33 36 38 41 44 47 49 51 53 54 55 54 50 46 45 46 47 50 53 54 53 52 50 46 44 41 37 34 30 25 19 14 9 6 7 9 13 16 19 21 22 23
29 31 34 37 39 42 45 47 50 51 53 54 54 53 49 45 44 45 46 49 52 53 52 51 48 45 44 41 37 33 30 26 20 14 8 3 1 5 8 12 15 17 19 20
29 31 33 36 39 42 44 47 49 51 52 53 53 52 49 45 42 43 45 48 50 52 51 49 46 45 43 41 37 33 29 26 22 17 13 9 6 5 7 8 11 13 15 17
29 31 33 36 39 42 44 47 49 50 51 52 52 51 49 44 41 42 44 46 48 50 50 49 46 44 42 39 35 33 29 26 23 20 17 13 10 8 7 7 8 10 12 14
31 32 34 36 39 42 44 46 48 50 51 51 52 51 49 45 41 40 41 44 46 47 48 48 46 44 42 39 35 32 29 26 23 21 18 16 13 11 9 8 8 9 10 12
31 32 34 36 38 42 44 47 49 51 51 51 51 51 49 45 40 38 39 41 43 45 46 47 45 43 41 39 36 33 30 28 25 22 20 18 16 15 13 11 11 11 11 13
32 33 34 36 38 41 44 47 48 50 51 51 51 50 48 45 40 36 36 37 39 41 43 44 44 43 41 38 35 33 30 28 26 24 22 20 19 18 17 16 16 16 17 18
32 33 35 36 39 42 44 46 48 49 50 50 50 50 48 45 40 36 34 34 36 37 39 40 42 42 40 38 35 32 30 28 26 25 24 22 21 20 20 19 19 19 20 22
32 33 35 37 39 42 44 46 47 49 49 49 49 48 47 44 40 35 33 32 33 34 35 36 37 38 38 37 35 33 31 29 27 26 24 23 21 21 20 20 21 22 24 26
32 34 36 38 40 42 44 45 47 48 48 49 48 47 46 44 40 35 31 29 29 30 31 32 33 33 34 34 33 32 30 29 28 26 25 24 23 23 23 23 24 24 26 28
34 35 37 39 41 42 44 45 46 47 47 47 47 45 44 42 40 36 31 28 26 26 27 27 28 29 30 31 31 30 30 29 27 27 26 25 25 25 25 25 25 26 27 29
36 37 38 40 41 42 44 44 45 45 46 46 45 44 43 41 38 35 31 27 24 23 22 23 24 25 25 26 26 27 27 27 26 26 25 25 25 25 25 25 26 27 28 28
39 39 40 41 42 42 43 44 44 44 45 45 44 42 41 40 39 35 31 27 23 20 19 19 20 20 20 21 22 23 23 24 24 23 23 24 24 23 23 23 24 25 25 25
41 41 41 41 42 42 43 43 43 43 44 44 43 41 39 38 37 35 31 27 23 19 17 17 16 16 16 16 17 17 18 19 19 19 19 19 19 19 20 20 21 21 21 22
41 41 42 42 42 42 42 42 41 41 42 41 40 39 38 37 36 34 31 27 23 19 16 15 14 12 12 12 12 12 13 14 14 14 15 15 15 15 16 17 17 18 18 18
41 42 43 43 43 42 41 41 40 39 40 39 38 36 35 34 34 33 31 28 23 19 15 13 12 11 10 9 9 8 9 9 9 9 10 11 11 12 12 12 13 14 14 16

GEFSNGP_500_meanwind_042.txt.gz
Wind_Speed
13 14 15 17 20 22 24 26 28 29 31 33 36 39 42 45 46 48 50 51 51 50 48 47 48 50 52 55 56 58 59 60 60 60 59 57 55 53 51 50 49 48 48 48
15 16 17 20 22 24 26 28 29 31 33 35 38 42 45 47 49 50 51 51 50 48 47 48 50 52 55 56 58 60 61 61 60 58 57 55 54 51 50 49 49 49 48 48
17 18 19 21 24 26 27 29 31 33 36 37 39 43 46 48 50 51 51 51 49 47 48 50 52 55 57 58 60 61 59 58 57 57 55 54 52 50 48 46 46 47 47 47
18 20 21 24 26 27 28 30 32 35 38 40 42 44 48 50 51 51 51 50 48 47 48 51 54 56 57 58 59 59 58 58 56 55 52 49 47 46 44 43 43 44 45 45
20 22 23 25 27 29 31 31 34 37 40 42 44 44 46 49 49 50 51 49 48 48 50 52 55 56 56 56 57 57 57 55 53 51 47 44 42 39 38 38 39 40 42 43
22 24 26 26 28 30 32 33 36 39 42 44 47 47 47 49 49 51 51 49 47 48 50 53 55 56 55 55 55 55 55 52 49 45 41 39 35 33 31 32 33 36 40 41
23 24 25 26 28 31 33 35 38 40 43 46 48 50 51 52 52 53 52 48 46 48 51 54 55 55 54 54 54 53 51 49 45 41 38 34 30 27 26 27 29 32 36 38
23 24 25 27 28 30 32 34 37 40 43 45 48 50 51 52 52 53 51 47 46 47 51 53 54 53 52 52 51 50 49 47 43 38 34 30 25 21 20 21 23 26 30 33
23 24 26 27 29 30 32 35 38 40 43 46 49 50 51 52 51 52 51 47 45 47 50 52 53 53 51 50 49 48 46 44 40 36 32 28 22 17 14 14 17 21 25 28
22 23 25 27 28 31 33 36 38 41 44 47 49 51 52 52 51 51 51 46 44 46 49 51 52 52 50 49 48 46 44 42 38 35 31 27 21 15 9 7 11 16 21 24
21 24 26 27 29 32 34 36 38 41 44 47 49 51 52 52 51 51 50 46 44 45 47 49 51 51 49 47 46 45 43 41 37 34 30 26 21 15 9 3 5 11 16 20
23 25 27 29 31 32 34 36 38 41 44 47 49 50 51 52 51 50 49 46 44 44 46 48 49 49 48 46 45 43 41 39 37 34 30 26 22 17 12 6 2 8 12 16
24 26 28 29 31 32 33 35 38 40 43 45 48 50 51 51 51 50 48 45 43 43 44 46 47 48 47 45 44 42 40 38 36 34 30 26 22 18 14 8 3 4 9 12
25 27 28 29 31 32 33 35 38 40 43 45 47 49 50 51 51 49 47 44 42 41 42 43 44 45 45 45 43 41 39 37 35 33 31 27 23 19 15 10 6 4 6 9
26 28 29 30 31 32 33 35 38 41 43 45 47 48 49 50 50 49 47 44 42 40 40 41 42 43 43 43 42 41 39 37 35 32 30 27 24 20 16 11 8 6 5 7
27 28 28 30 31 33 34 36 38 41 43 44 45 47 48 49 49 48 47 45 41 39 38 38 39 40 41 41 41 40 39 37 34 32 30 27 25 21 18 14 10 7 6 7
28 28 29 30 32 34 35 37 39 41 43 45 45 46 47 47 47 47 46 44 41 38 37 36 37 38 39 39 39 39 38 36 34 32 30 28 25 22 19 15 12 8 7 7
29 29 31 32 34 35 37 38 39 41 43 44 45 45 46 46 46 45 44 42 40 37 35 34 34 35 36 37 37 37 36 35 33 31 30 28 26 24 20 17 15 13 12 11
32 32 33 34 35 36 38 39 40 42 43 44 44 45 45 46 46 45 44 41 38 35 33 31 31 32 33 34 34 34 34 33 33 31 30 29 28 26 22 20 18 17 16 15
35 35 36 36 37 38 38 39 41 41 42 43 43 44 44 44 44 43 43 41 38 35 32 30 29 28 29 31 31 32 32 32 32 31 30 29 28 27 25 23 22 21 20 18
37 37 37 37 38 38 38 39 40 41 41 41 42 42 42 42 42 41 41 39 37 35 31 28 26 25 26 27 27 28 29 29 29 30 30 29 27 26 26 25 25 24 24 23
38 38 38 38 38 38 38 39 39 39 40 41 42 42 41 41 41 41 39 38 36 33 30 27 24 22 22 23 24 24 25 26 26 27 28 27 26 26 25 25 26 26 26 26
40 39 38 38 37 37 38 38 38 39 40 41 42 41 40 39 38 38 37 36 34 32 30 26 23 20 19 19 20 21 21 22 23 23 24 24 24 24 24 24 24 25 25 25
40 39 38 37 37 37 38 37 38 39 40 41 41 40 39 38 38 37 35 34 32 31 29 26 22 19 17 16 16 17 17 18 19 20 20 20 21 21 21 21 21 21 22 23
40 39 38 37 37 37 37 37 39 40 41 41 41 40 38 37 36 35 34 33 31 30 28 25 22 18 15 13 12 13 13 14 14 15 16 16 17 17 18 19 19 19 20 20
42 41 39 38 38 40 39 40 41 41 41 41 40 39 37 36 35 34 33 31 30 28 26 25 21 18 15 12 10 10 9 9 10 10 11 11 12 12 13 14 15 16 16 16
43 41 40 41 41 41 42 43 43 41 40 39 38 37 36 35 34 33 32 30 28 26 25 23 21 17 14 12 10 9 7 6 6 6 6 7 7 8 9 9 10 11 12 12

GEFSNGP_500_meanwind_048.txt.gz
Wind_Speed
9 11 13 14 15 16 16 16 18 20 22 25 28 32 34 36 39 41 43 44 44 43 44 42 40 38 38 40 42 44 45 46 48 50 50 51 51 51 51 51 51 52 54 55
11 12 14 15 16 16 17 18 19 21 23 26 29 33 35 38 40 43 44 44 44 44 44 42 40 38 39 41 43 45 46 48 49 50 50 50 50 50 50 49 49 49 50 52
14 15 16 16 16 17 18 19 21 23 25 28 31 34 37 39 42 44 45 45 45 44 43 42 40 39 40 42 44 46 47 48 49 50 49 49 49 48 47 45 44 44 45 46
16 17 16 16 17 17 18 20 22 24 27 29 32 35 38 40 43 45 46 46 45 44 43 42 41 40 41 43 45 46 47 48 50 50 49 48 47 45 42 40 39 38 39 40
17 18 18 17 17 18 19 20 23 25 27 30 33 36 39 42 45 47 47 48 47 46 44 43 41 41 42 44 45 46 47 49 50 49 47 46 44 41 39 35 33 33 33 35
18 18 18 19 18 20 21 22 24 26 28 31 34 36 39 43 45 47 48 48 47 46 45 43 42 41 43 44 46 47 48 49 49 48 46 43 41 38 35 31 29 28 27 28
18 19 20 19 20 21 24 25 27 28 30 32 35 38 40 43 45 48 48 49 48 47 46 44 42 42 43 45 46 47 48 48 48 47 45 42 39 35 32 29 26 23 21 21
18 19 21 20 21 22 24 26 28 29 31 33 36 39 42 44 46 48 49 48 48 47 45 44 43 42 43 44 46 47 47 47 47 46 43 40 37 33 30 27 23 18 15 15
19 20 21 21 22 23 25 27 28 29 31 34 36 40 43 45 47 48 49 49 48 47 46 44 43 43 43 44 45 46 46 46 45 44 42 38 34 31 27 24 20 15 10 9
20 20 21 22 23 24 26 27 28 30 32 34 37 41 43 46 47 48 49 49 48 47 45 44 42 42 43 43 45 45 45 45 44 42 40 37 33 29 26 22 18 13 8 5
20 21 22 22 24 25 26 27 28 30 33 35 39 42 45 47 48 48 49 49 48 47 45 44 42 42 42 43 44 44 44 43 42 41 39 35 32 28 24 21 17 12 7 2
21 21 22 23 24 25 27 28 29 31 34 37 40 43 45 47 48 48 48 48 48 47 45 43 41 41 41 42 43 43 43 42 41 40 38 34 31 27 23 21 17 11 6 1
21 21 22 23 25 26 28 29 30 33 35 38 41 44 46 47 48 48 48 48 47 46 44 42 40 40 40 41 42 42 42 41 40 39 37 34 30 26 22 20 17 12 6 2
20 21 23 24 26 27 29 30 32 35 37 40 42 45 46 47 47 47 47 47 46 45 43 42 40 39 39 39 40 41 40 39 39 38 36 33 30 25 22 18 16 12 7 2
22 23 24 26 28 29 31 32 35 37 39 41 43 45 45 45 46 46 47 46 45 44 42 41 39 37 37 38 38 39 39 38 37 37 35 32 29 25 22 19 15 12 8 4
24 25 27 29 30 31 33 35 37 39 40 42 43 44 44 44 44 46 46 46 45 43 41 40 38 36 35 36 36 36 37 37 37 35 34 32 29 25 23 19 15 12 9 6
28 29 30 31 33 34 36 38 39 40 41 42 42 42 42 42 43 44 46 46 44 42 40 38 37 35 34 34 33 34 35 36 36 35 33 31 29 26 23 19 15 13 11 8
33 33 34 35 36 37 39 39 39 40 41 42 41 41 41 41 42 43 44 43 43 42 40 38 36 34 32 31 31 31 32 33 34 33 32 31 29 26 23 20 17 14 12 10
37 37 37 38 38 39 39 39 39 40 40 40 40 40 39 40 41 42 42 42 41 40 39 37 34 32 30 29 28 29 29 31 31 31 31 30 29 26 23 20 19 17 15 12
40 40 40 39 39 39 39 38 38 38 39 38 38 38 37 38 39 40 41 41 40 39 37 35 33 30 29 27 25 26 26 27 28 29 28 28 28 27 24 22 19 18 18 17
41 40 40 39 38 37 37 37 37 37 37 37 36 35 36 38 38 39 39 39 39 38 36 35 32 29 27 25 23 22 23 24 25 26 25 25 26 26 25 23 21 19 17 16
39 39 38 38 37 37 37 36 36 37 37 37 36 36 36 37 38 38 38 37 37 37 35 34 31 28 25 23 21 19 19 20 21 22 23 22 23 24 24 24 23 21 19 17
40 39 39 39 38 38 38 37 37 37 37 36 37 36 36 36 36 36 35 35 35 35 34 32 30 27 24 22 20 17 17 17 17 18 19 20 20 20 22 23 23 22 21 21
44 42 42 42 40 39 38 38 37 37 36 35 35 35 35 35 34 34 33 33 34 34 32 31 29 26 23 20 18 16 14 14 14 14 15 16 17 18 19 20 20 20 20 21
49 47 45 44 43 41 39 39 38 37 35 35 35 35 34 33 32 32 32 32 32 32 31 30 28 25 22 19 17 15 13 12 11 11 11 12 13 14 15 16 17 18 18 18
53 51 49 47 44 42 40 39 37 37 36 35 35 34 32 32 32 31 31 31 31 31 30 29 27 24 21 19 16 14 12 10 9 8 8 8 9 10 11 12 13 14 16 16
56 54 52 49 46 44 42 40 37 37 37 36 35 34 33 32 31 30 30 30 30 30 29 27 26 23 20 18 15 13 11 9 7 6 5 5 5 6 7 8 9 10 11 12

GEFSNGP_500_meanwind_054.txt.gz
Wind_Speed
8 10 12 13 14 15 15 15 15 18 21 25 26 27 28 30 32 34 36 39 41 42 44 44 44 44 44 44 43 43 43 42 43 43 43 44 45 46 47 47 47 47 47 47
9 10 12 13 15 17 17 18 19 21 24 26 27 28 29 30 32 35 37 39 42 44 45 45 45 45 45 44 44 43 43 43 43 43 44 45 46 46 46 46 46 46 46 45
9 10 11 15 16 19 20 21 22 24 26 27 27 29 29 30 32 35 38 41 44 45 46 46 46 46 45 45 44 43 43 43 44 44 44 45 45 46 46 45 45 44 43 42
12 10 13 16 19 20 23 24 24 25 27 28 29 31 31 31 34 37 40 43 45 46 46 47 47 46 46 45 44 44 43 43 44 44 44 44 45 46 45 44 43 41 40 39
14 12 13 18 22 20 23 25 23 24 25 27 28 31 34 34 37 40 42 44 46 47 47 47 47 47 46 45 45 44 44 44 44 44 44 44 45 45 44 42 40 38 36 35
16 15 14 18 22 21 24 28 24 26 27 28 29 30 33 36 38 40 42 45 46 46 48 48 48 47 46 45 45 44 44 44 44 44 44 44 44 44 42 40 37 35 33 32
19 18 18 23 23 24 26 27 28 29 29 29 30 31 33 35 38 41 43 45 46 47 48 49 48 47 46 45 45 45 44 44 44 44 44 43 43 43 40 38 36 33 32 30
21 20 22 26 27 27 26 26 27 28 28 29 30 32 34 37 39 41 43 45 46 46 48 48 48 47 46 45 45 44 44 44 44 43 43 43 43 41 38 37 34 32 30 28
21 23 27 28 28 28 27 27 27 27 28 29 31 33 35 38 40 42 44 44 45 46 47 48 48 48 46 45 45 44 43 44 43 43 43 43 41 39 37 35 33 31 28 26
24 23 26 28 28 28 27 27 27 27 29 30 32 34 36 39 41 42 44 44 44 45 46 47 48 47 46 45 44 44 43 43 43 42 42 42 40 39 37 34 32 28 25 23
28 27 27 26 27 27 27 27 27 28 30 31 33 35 38 40 42 42 43 43 43 44 46 47 47 47 46 45 44 43 42 42 42 42 42 41 39 38 37 33 30 26 23 21
27 27 28 27 27 27 27 27 28 29 31 33 35 37 38 40 41 42 42 42 43 44 45 46 47 47 46 44 43 42 41 41 41 41 40 40 38 36 35 32 28 24 22 19
28 26 26 27 27 28 28 29 30 31 32 34 37 38 40 40 41 41 41 41 42 43 44 45 46 46 45 44 43 42 41 40 40 40 39 38 37 35 33 30 27 24 20 17
28 27 25 26 27 29 30 31 33 34 35 36 38 39 40 41 41 41 41 41 42 43 44 45 46 46 45 43 42 40 39 39 39 38 38 37 36 34 31 29 26 23 20 16
29 29 29 29 29 31 32 34 35 37 39 39 40 40 41 41 41 41 40 40 41 42 43 45 45 45 44 42 41 39 38 37 37 37 37 36 35 33 31 28 26 23 19 15
31 32 33 34 34 35 36 37 38 40 41 42 41 41 41 41 41 40 40 40 41 42 43 44 44 44 42 41 39 38 36 35 35 35 36 36 34 32 30 27 25 22 18 14
35 35 36 37 38 39 39 40 41 42 43 43 42 42 41 41 40 40 40 40 41 42 42 42 43 42 41 40 38 37 35 33 33 33 34 34 33 31 29 27 24 22 18 14
38 39 40 41 41 42 43 43 43 44 43 43 43 42 41 40 40 40 40 40 40 41 41 41 41 41 40 38 37 35 33 32 31 31 32 32 32 30 28 26 24 21 18 14
41 42 42 43 44 44 44 44 44 44 43 43 42 42 41 41 40 40 40 39 39 39 39 40 40 39 38 37 35 33 32 30 29 28 29 30 30 29 28 26 24 21 19 16
43 44 44 44 45 45 45 45 44 44 43 43 42 42 42 41 40 40 39 39 38 38 38 38 37 37 36 35 33 32 30 28 27 26 26 27 28 27 26 25 23 21 19 16
46 46 47 47 47 47 47 46 45 44 44 43 44 44 43 42 40 38 38 38 37 37 36 35 35 35 34 33 32 30 28 26 25 24 24 24 25 24 24 24 22 20 19 17
50 50 50 50 50 50 49 48 47 47 46 45 45 45 44 42 40 39 38 37 36 35 34 33 34 34 33 32 30 28 26 24 23 21 21 21 22 22 21 21 21 20 19 18
54 54 54 53 53 52 52 51 51 50 48 48 47 46 45 43 42 41 39 37 35 33 33 32 32 32 31 30 28 26 24 22 21 19 18 17 18 18 18 19 19 20 19 18
58 58 58 57 56 55 55 55 54 53 51 50 49 48 46 45 43 40 38 36 34 33 31 31 31 30 29 28 27 25 23 21 19 17 15 14 14 14 15 15 16 17 18 18
61 61 60 59 59 57 57 56 55 54 52 51 49 48 46 44 42 40 38 36 34 32 31 30 29 28 27 26 25 23 21 19 17 15 13 12 11 11 11 12 12 14 15 16
61 61 60 59 58 57 56 55 54 54 53 51 49 48 45 43 41 41 39 36 33 32 31 29 27 26 25 24 23 22 20 17 15 13 11 10 8 8 8 8 9 10 11 12
61 59 58 57 56 55 54 52 51 50 49 48 47 45 44 42 41 39 37 36 34 31 29 28 25 24 24 23 22 21 19 16 14 12 10 8 7 6 5 5 5 6 6 7

GEFSNGP_500_meanwind_060.txt.gz
Wind_Speed
10 11 11 11 12 14 15 16 17 18 19 21 22 23 25 26 28 29 31 33 35 36 37 39 40 41 41 41 42 42 42 42 42 42 41 41 41 40 40 39 40 40 41 41
9 11 12 12 13 15 17 18 18 19 22 23 23 24 25 27 28 30 31 34 36 37 39 40 41 41 42 42 43 43 43 43 43 42 42 41 41 40 40 40 40 40 40 40
9 11 11 12 13 14 16 17 19 20 22 23 24 25 25 27 28 30 32 34 37 39 40 40 41 42 42 43 44 44 44 44 43 43 42 41 41 40 40 40 40 40 40 40
11 11 12 11 12 14 16 18 19 20 22 24 25 25 25 27 29 31 33 35 38 39 40 41 41 42 43 43 44 45 45 45 44 43 42 41 41 40 40 40 40 40 39 39
13 13 12 13 13 15 18 19 20 22 24 25 26 26 26 28 30 32 34 36 38 40 40 41 41 42 43 44 45 45 45 45 45 44 42 41 41 41 41 41 40 39 39 38
14 13 12 11 14 17 19 20 21 23 24 25 27 27 28 30 32 34 36 37 39 40 40 41 41 42 43 44 45 46 45 45 45 44 42 41 41 41 41 40 39 38 38 38
16 16 16 16 18 20 22 23 23 23 24 25 26 27 29 30 32 34 37 38 39 40 40 41 41 42 43 44 45 46 46 45 45 44 43 42 41 41 41 40 39 38 37 36
21 22 22 22 23 23 23 23 23 23 23 24 26 27 29 31 33 35 37 38 39 40 40 41 41 42 44 44 46 46 47 46 45 44 43 42 41 41 41 40 38 37 36 35
24 24 24 24 25 24 24 23 23 23 23 25 27 29 30 33 35 36 38 39 39 40 40 41 41 42 44 45 46 46 47 46 45 44 42 42 41 40 40 39 37 36 35 33
27 27 26 25 25 25 24 23 23 23 24 26 28 30 32 34 36 38 39 39 39 40 40 41 41 42 44 45 46 46 46 45 44 43 42 41 41 40 40 39 36 34 34 31
27 27 26 25 25 25 25 25 25 25 25 27 30 32 34 36 38 39 39 39 39 39 40 40 41 42 44 45 45 46 46 45 44 43 41 41 40 40 39 38 36 33 31 30
28 27 27 26 27 27 27 27 27 28 28 29 31 34 36 38 39 39 39 39 39 40 40 41 42 43 44 45 46 46 45 45 43 42 41 40 39 39 38 37 35 32 30 28
28 27 28 29 29 29 29 30 31 31 32 33 34 35 37 39 40 40 40 39 40 40 41 41 42 43 44 45 45 45 44 44 43 41 40 39 39 38 37 36 33 31 29 27
28 28 29 30 32 32 32 33 34 34 35 36 37 37 38 39 40 40 40 40 40 40 41 42 43 43 44 44 45 44 44 43 42 40 38 38 38 37 36 34 32 28 27 25
29 29 30 32 33 34 35 35 36 36 37 38 39 39 39 39 40 41 41 41 41 42 42 42 43 44 44 44 43 43 43 42 41 39 37 37 37 36 35 33 31 28 26 24
30 31 32 33 34 35 36 37 38 39 39 40 40 41 41 40 41 42 43 42 42 43 43 43 43 43 43 43 43 42 42 41 39 38 36 35 35 35 33 31 30 27 25 22
31 32 34 35 36 37 38 39 40 41 42 42 42 42 43 43 43 45 45 44 44 44 45 44 43 42 42 43 42 41 40 39 38 36 35 33 33 32 31 30 28 26 24 21
35 36 38 39 40 41 42 43 43 44 44 44 44 44 45 46 46 47 47 46 46 46 46 44 43 42 42 42 41 39 38 38 37 35 33 32 31 30 29 28 27 25 23 21
39 40 41 43 43 44 45 45 46 47 47 48 49 48 48 50 50 50 50 48 48 48 47 45 44 43 42 41 39 37 37 36 35 33 31 30 28 27 26 26 26 25 22 21
43 43 44 45 46 46 47 47 48 49 50 52 51 51 52 53 53 52 51 50 49 48 46 45 44 42 40 38 37 35 34 34 33 31 29 27 26 25 24 24 24 23 22 21
46 47 47 47 48 49 50 52 53 53 54 53 54 54 55 55 54 53 51 50 49 47 46 44 42 40 38 37 35 34 33 32 30 29 27 25 23 22 21 22 22 21 21 21
49 49 50 51 52 53 55 56 57 57 57 57 58 58 57 55 54 53 51 49 47 46 44 41 40 38 37 35 34 32 31 29 28 26 25 23 21 20 19 18 19 19 19 20
51 51 53 54 56 57 58 58 59 59 59 59 59 58 57 55 53 52 49 47 45 43 41 40 38 36 35 33 32 30 28 27 25 24 23 21 19 18 16 16 16 17 17 18
54 55 57 58 59 60 60 60 60 60 59 58 58 56 55 53 51 48 46 44 42 40 39 38 35 34 33 31 29 28 26 25 23 22 21 19 17 15 14 13 13 14 15 16
59 60 60 61 61 62 62 61 61 60 59 57 56 54 52 49 47 44 42 40 38 37 36 34 32 31 30 28 27 25 24 23 22 20 18 17 15 13 11 11 11 12 13 13
64 64 64 63 63 63 62 61 59 58 56 54 52 50 47 45 43 40 38 37 35 34 32 30 29 28 26 25 24 23 22 21 20 18 17 15 13 11 9 8 9 9 10 10
66 66 66 65 64 63 62 60 58 56 53 51 48 45 42 40 38 37 35 34 33 31 29 29 28 26 25 24 23 21 20 19 19 17 15 14 12 10 8 7 7 6 6 7

GEFSNGP_500_meanwind_066.txt.gz
Wind_Speed
11 11 11 11 12 12 12 12 12 13 14 15 16 18 19 20 21 21 22 23 24 26 28 30 32 33 34 35 35 36 37 38 39 40 41 41 42 42 42 42 41 41 41 40
12 13 12 11 12 12 12 12 12 14 16 17 18 20 21 21 21 21 22 24 25 27 29 32 33 34 35 35 36 37 38 39 40 41 42 43 43 43 43 43 42 42 41 40
12 13 12 12 11 11 11 12 14 16 18 19 20 21 21 21 21 22 23 25 27 29 31 33 34 35 36 36 37 38 39 40 41 42 43 44 44 44 44 44 43 42 41 41
11 11 11 10 10 10 11 13 15 17 19 21 21 22 22 21 22 23 24 26 29 31 33 34 35 36 36 37 38 39 40 42 43 43 44 45 45 45 45 44 44 42 42 42
11 10 9 9 9 10 12 14 16 18 20 21 21 22 22 22 23 24 26 28 30 32 34 35 36 36 37 38 39 40 42 43 44 44 45 45 45 45 45 45 44 43 42 42
13 12 10 10 11 12 14 15 17 19 21 21 21 22 22 23 24 25 27 29 31 33 34 35 36 36 37 39 40 41 43 43 44 45 46 46 46 46 45 45 44 43 43 41
15 15 12 13 13 14 16 18 19 20 21 22 22 23 24 24 25 27 28 30 32 34 35 35 36 37 38 39 41 42 43 45 45 46 46 46 46 46 46 45 44 43 42 41
17 16 16 16 16 17 19 19 21 22 23 23 24 25 25 26 27 29 30 32 33 34 35 35 36 37 39 40 42 43 44 45 46 46 47 47 46 46 45 45 43 42 41 40
19 19 19 19 20 20 21 22 22 23 24 25 26 26 27 28 30 31 32 33 35 35 36 36 37 39 40 42 43 44 45 46 46 47 47 47 46 45 45 44 42 42 41 39
24 23 23 23 23 23 24 24 25 26 26 27 28 28 29 30 32 33 34 35 36 36 36 37 39 41 43 44 45 45 46 47 47 48 47 47 46 45 44 43 42 41 39 37
27 26 26 25 25 26 26 27 27 27 28 28 29 30 31 32 34 35 35 36 36 37 37 38 40 42 44 46 46 47 47 48 48 48 46 46 46 45 44 42 41 40 38 36
29 28 28 27 27 28 28 29 29 29 29 30 31 32 33 34 35 35 36 36 37 37 39 40 41 43 45 47 47 48 48 48 48 47 46 46 45 44 43 42 40 39 37 35
31 31 31 30 30 30 31 31 32 32 32 32 32 33 34 34 35 36 36 36 37 39 41 42 44 45 47 48 48 48 48 48 47 47 46 46 44 42 40 40 39 38 36 33
32 33 33 33 33 33 33 34 34 34 34 34 34 35 35 36 37 37 37 37 39 41 43 46 47 47 49 50 50 49 48 47 46 45 44 44 43 41 39 38 36 36 34 32
33 34 35 35 35 35 35 36 36 36 37 37 37 37 38 39 39 39 39 40 42 44 47 48 49 50 51 51 51 50 48 46 45 43 43 42 41 40 38 37 35 34 33 30
35 36 37 38 38 38 38 38 38 38 39 40 41 41 41 42 41 42 43 43 45 47 49 50 51 52 51 51 51 49 47 45 43 41 41 40 39 38 37 35 34 33 31 28
38 39 40 40 41 41 41 41 42 42 43 43 44 44 44 45 45 45 45 46 48 50 51 52 52 52 51 51 50 48 46 43 41 39 39 38 37 36 35 33 32 31 29 27
41 41 42 42 43 43 43 44 44 44 45 46 47 48 48 47 47 48 49 51 52 51 52 52 53 53 52 52 50 47 44 41 39 38 36 35 35 34 33 31 30 28 28 26
43 43 43 44 44 45 45 45 46 47 48 48 49 50 50 51 52 53 54 54 53 53 52 53 54 53 53 51 49 45 42 39 37 35 34 33 33 32 31 29 28 26 26 25
45 46 46 46 47 47 48 49 50 51 52 53 53 54 55 55 56 56 56 56 55 55 55 55 54 53 51 49 46 43 40 36 34 32 32 31 30 29 28 27 25 24 24 23
47 47 48 49 50 51 52 53 54 55 56 57 58 58 59 59 59 60 59 58 57 57 56 55 54 51 49 46 43 40 37 34 32 30 29 28 27 26 25 24 23 22 21 21
49 50 51 52 53 54 56 57 58 59 60 61 62 62 62 62 62 61 60 59 58 57 55 53 51 49 46 43 40 37 34 32 29 27 27 26 25 24 23 21 21 19 19 19
53 54 54 55 57 58 59 60 61 62 62 63 63 64 64 63 63 62 60 58 57 55 53 51 48 45 42 39 36 34 31 28 26 25 24 23 22 21 20 18 18 17 17 17
56 57 58 59 59 60 61 62 63 63 63 64 64 64 63 63 61 61 59 57 55 52 50 47 44 42 39 36 33 30 28 26 23 23 22 20 20 18 17 16 15 15 15 15
59 59 60 61 62 62 63 63 64 64 64 63 63 62 62 61 60 58 55 53 50 48 45 43 40 37 34 31 29 26 24 23 22 21 20 18 17 16 15 14 13 13 13 12
60 61 62 62 63 63 63 63 63 63 62 62 61 60 58 57 55 53 51 48 46 43 40 37 35 32 29 27 25 25 23 22 21 20 18 17 16 14 13 12 11 10 10 10
60 60 61 61 61 61 60 60 60 59 59 58 57 55 53 51 49 46 44 42 39 37 35 33 30 28 26 24 23 23 21 20 19 18 16 15 14 13 11 10 9 8 7 7

GEFSNGP_500_meanwind_072.txt.gz
Wind_Speed
13 13 13 13 13 14 13 13 13 13 14 14 14 13 13 14 14 14 14 14 15 16 17 18 20 21 22 23 24 25 26 27 29 31 33 34 35 37 38 39 40 40 40 40
14 14 14 13 13 14 13 13 14 14 14 14 14 14 14 14 14 14 14 15 16 17 18 20 21 22 23 24 25 26 27 29 31 33 35 36 37 39 40 41 41 42 42 41
14 15 15 12 13 13 13 13 13 13 15 15 15 15 15 15 15 15 15 16 17 18 20 21 22 23 24 25 26 27 29 31 33 35 36 38 39 40 41 42 43 43 42 42
14 14 13 12 13 12 11 13 13 14 15 16 16 16 16 15 15 16 16 17 18 20 21 22 24 25 25 26 27 29 30 32 34 36 38 39 41 42 43 44 44 43 43 42
14 14 13 13 14 13 13 13 15 15 17 17 17 17 17 16 16 17 17 18 20 21 23 24 25 26 26 27 28 30 31 33 35 37 39 41 43 44 45 45 44 44 43 41
15 15 14 15 17 15 15 15 18 18 19 19 18 18 18 18 17 18 19 20 22 23 25 26 27 27 27 28 29 31 33 35 37 39 41 42 44 45 45 45 44 44 42 41
18 17 15 20 18 17 17 19 21 21 21 20 20 19 20 20 20 20 21 22 24 25 27 27 28 29 29 30 30 32 34 37 39 41 43 44 46 46 46 45 44 43 41 40
21 19 20 23 20 20 21 22 22 22 22 22 22 22 22 22 23 24 24 25 26 28 29 29 29 30 31 31 33 35 37 39 41 43 45 46 47 47 46 45 44 42 40 39
24 24 26 24 23 23 23 23 24 24 24 24 24 24 25 25 26 27 28 28 29 30 31 31 32 32 33 34 35 37 39 41 43 45 46 47 48 47 46 44 43 41 40 38
26 27 26 26 25 25 25 25 26 26 27 27 27 28 28 28 29 30 31 32 32 33 34 34 34 34 35 36 37 39 42 44 45 47 47 48 48 47 46 44 42 40 39 38
26 27 27 28 27 27 27 27 28 29 29 30 30 30 31 31 32 33 34 34 35 36 37 37 38 38 38 38 40 43 45 46 47 48 49 48 48 47 46 44 42 40 39 38
28 28 28 29 29 29 30 30 31 31 32 32 33 33 33 34 34 35 36 37 38 40 40 40 42 42 41 42 43 45 47 48 49 50 49 48 48 46 45 43 41 39 38 37
28 29 30 30 30 31 32 32 33 33 34 34 34 35 36 36 37 38 39 40 41 43 44 44 46 46 45 45 45 46 48 49 50 50 49 49 48 45 43 41 39 38 37 36
29 30 31 32 32 33 33 34 34 34 35 36 36 37 37 38 39 41 42 43 44 46 47 47 47 48 49 48 48 49 49 50 50 49 50 49 47 44 41 39 38 37 36 35
30 31 32 33 34 34 35 35 36 36 37 37 38 39 40 41 42 44 45 46 47 48 49 49 49 50 51 50 50 50 50 49 49 50 50 48 45 42 40 38 36 35 34 34
32 33 34 35 36 36 37 37 38 39 40 40 41 42 43 45 47 48 49 49 50 50 51 52 53 52 52 52 51 51 51 50 49 49 48 46 44 41 38 36 34 33 32 31
34 35 36 37 38 39 40 41 41 42 43 44 45 46 48 49 50 51 52 52 53 53 53 54 54 54 53 53 53 52 50 49 48 47 45 44 42 39 36 34 32 31 30 30
37 38 39 40 41 41 42 43 45 46 47 48 49 50 51 52 53 53 53 54 55 56 56 56 56 56 56 55 54 52 50 49 47 45 44 42 39 37 34 32 30 29 28 27
40 41 42 43 44 45 46 47 48 49 50 51 51 52 53 53 54 54 55 56 57 57 57 57 57 56 55 54 52 51 49 47 45 44 42 39 37 34 32 29 28 27 26 24
43 44 45 46 47 48 48 49 50 51 52 53 53 54 54 55 56 57 57 58 59 59 58 57 56 55 54 53 52 50 48 46 44 42 39 36 33 31 29 26 25 25 24 23
45 46 47 48 49 50 51 52 53 53 54 55 55 56 56 57 58 58 58 59 59 59 58 58 57 56 55 53 51 49 47 44 42 39 36 33 30 27 26 24 23 23 22 21
47 48 49 50 51 52 52 53 54 55 56 56 57 57 58 58 59 59 59 59 59 59 58 57 56 55 54 52 49 47 44 42 39 35 32 29 27 25 23 22 21 20 20 19
49 50 51 51 52 53 53 54 55 56 56 57 57 58 58 58 58 59 59 58 58 58 57 56 54 53 51 49 46 44 41 38 35 31 29 27 24 23 21 20 19 18 18 17
50 51 52 53 53 54 54 54 55 55 56 56 56 57 57 57 57 57 57 56 56 55 53 52 50 48 46 43 41 39 36 34 31 28 26 24 22 20 19 18 17 16 15 14
51 51 52 53 53 53 53 53 53 53 53 53 53 53 53 53 53 52 52 51 50 49 48 46 44 41 38 36 35 33 31 29 27 25 23 22 20 19 17 16 15 15 14 12
50 51 51 51 51 51 51 51 51 51 50 49 49 48 48 48 47 47 46 45 44 43 41 39 36 34 32 31 29 27 26 24 22 20 20 20 18 17 15 14 14 13 12 11
49 49 49 49 49 49 49 48 47 46 46 45 44 44 43 43 43 43 42 41 40 38 35 33 30 28 25 24 23 22 21 20 19 18 18 17 17 16 14 13 12 11 10 9

GEFSNGP_500_meanwind_078.txt.gz
Wind_Speed
15 13 12 11 10 11 14 15 15 16 15 17 19 20 21 20 20 20 19 18 18 17 17 17 17 18 19 20 21 21 22 23 24 25 26 27 29 30 32 33 35 37 39 40
15 13 15 14 13 14 15 15 15 15 16 19 22 21 21 21 21 21 20 19 18 18 18 18 18 19 20 21 22 23 24 25 26 26 28 29 30 32 34 35 37 39 41 42
15 14 16 15 14 15 16 16 15 15 17 20 22 22 21 20 20 21 20 19 19 19 19 19 20 21 22 23 24 25 25 27 28 29 30 31 33 34 36 38 39 41 43 44
17 16 16 13 14 15 15 15 16 17 19 20 21 21 21 20 20 20 20 20 20 20 20 21 21 22 23 24 25 26 27 29 30 31 32 33 35 36 38 39 41 43 45 45
17 17 15 15 18 18 16 16 16 16 18 19 20 21 22 21 20 20 20 21 21 22 22 22 23 24 25 26 27 28 30 31 33 34 35 36 37 39 40 41 42 45 46 46
18 17 17 21 22 21 20 20 17 17 19 20 19 21 23 23 22 22 22 22 23 23 24 24 25 26 27 28 29 30 32 34 36 37 38 38 39 40 41 43 44 45 46 46
18 18 19 24 24 22 21 23 18 17 19 19 21 23 25 24 25 25 24 24 25 25 26 26 27 28 29 30 32 33 35 37 38 40 41 40 41 42 43 44 45 46 47 46
22 23 24 27 27 27 25 22 18 20 22 23 26 26 27 28 28 27 26 26 27 27 27 28 29 31 32 33 35 36 38 39 41 42 44 43 44 44 45 46 47 47 47 47
27 28 28 30 28 26 23 22 23 25 25 27 28 28 30 30 30 30 29 29 29 30 30 31 32 33 35 37 38 39 40 42 43 44 45 46 47 47 47 48 49 49 48 47
29 31 30 28 28 28 28 28 29 29 30 30 31 31 32 32 32 33 32 32 32 33 34 34 35 37 38 39 40 41 43 44 45 46 46 47 48 49 49 51 51 49 49 48
32 33 32 30 30 31 31 30 31 31 32 33 33 33 33 34 34 35 35 35 36 37 38 39 39 40 42 43 44 44 46 47 47 48 48 49 49 50 52 51 49 49 49 48
33 33 34 34 32 32 33 32 32 33 33 34 34 35 35 35 36 37 38 38 39 40 41 42 42 43 44 45 46 47 48 49 49 50 51 51 52 52 52 51 50 48 47 47
31 31 32 33 33 33 34 34 34 34 34 35 35 36 37 37 38 39 40 40 41 42 43 44 45 46 47 48 49 50 51 51 51 52 52 54 54 54 53 51 50 49 47 45
30 31 32 33 34 34 35 36 36 36 36 36 37 38 38 39 40 41 42 43 44 44 45 46 47 48 50 50 51 51 52 52 52 53 54 54 54 53 52 51 50 48 46 44
31 32 33 34 35 36 36 37 38 38 38 39 39 40 40 41 42 43 44 44 45 46 47 49 50 51 52 52 52 53 53 53 54 55 55 54 54 53 52 51 49 47 45 43
33 34 35 36 37 38 38 39 40 41 42 42 42 43 43 43 44 45 46 47 48 49 50 51 52 53 53 54 54 55 55 55 55 56 55 54 53 52 51 50 47 45 42 40
35 35 36 38 39 40 41 42 43 44 44 44 45 45 46 46 47 48 48 49 50 52 53 53 54 54 55 55 56 56 57 56 56 57 56 55 53 52 50 48 45 43 40 38
36 37 39 40 41 42 43 44 45 45 46 46 47 48 49 49 50 50 51 51 53 54 55 55 55 55 56 57 58 58 58 57 57 57 56 55 53 51 49 45 43 40 37 35
38 39 40 41 42 43 44 45 46 47 47 48 49 50 51 52 53 53 54 54 55 56 56 56 57 57 58 59 59 59 59 59 58 57 55 54 52 49 46 43 40 37 35 33
39 40 41 42 43 45 46 47 48 49 50 51 51 52 53 54 55 55 56 56 57 57 58 58 58 59 59 59 59 59 59 58 57 55 53 51 49 45 42 40 37 34 32 30
40 41 42 44 45 47 48 49 50 51 52 53 53 54 55 56 56 57 57 57 58 58 58 58 59 59 59 59 59 58 56 55 53 51 49 46 44 41 38 36 33 31 28 26
43 44 45 46 47 48 49 50 52 53 54 54 55 55 56 56 57 57 57 58 58 58 57 57 57 58 57 57 55 54 52 50 48 46 43 40 38 35 34 31 29 27 25 24
45 46 47 48 49 50 51 52 53 54 54 55 55 56 56 56 56 55 55 55 56 55 55 55 54 54 52 51 50 48 47 45 42 39 37 34 31 29 28 27 25 23 22 22
47 48 48 49 50 51 52 52 52 53 53 53 53 53 54 53 53 52 53 52 52 52 51 50 49 48 47 46 45 43 41 38 35 32 30 28 26 24 23 22 22 21 21 20
48 49 49 50 50 50 51 51 51 50 50 50 50 50 50 49 49 49 49 48 48 47 46 45 45 43 42 41 39 38 35 32 29 28 26 24 22 20 19 18 18 18 18 17
48 48 48 48 48 48 48 48 48 48 47 47 46 45 45 45 45 44 44 44 43 42 41 41 40 38 37 36 34 32 29 26 23 22 20 19 18 18 18 18 18 17 16 15
45 45 46 46 45 45 45 45 45 44 43 43 42 41 41 41 40 40 40 38 38 37 37 36 35 34 33 31 29 26 23 20 18 17 16 16 15 14 14 15 15 15 14 13

GEFSNGP_500_meanwind_084.txt.gz
Wind_Speed
19 18 18 17 16 17 17 17 17 16 16 16 15 14 13 12 10 8 8 7 7 8 8 9 10 11 12 12 13 14 16 17 17 19 20 21 22 24 25 27 28 30 32 32
19 19 20 19 18 18 19 19 20 20 19 17 15 14 14 14 12 11 10 10 10 10 11 11 12 13 14 15 16 17 18 19 20 21 22 23 25 26 28 30 31 32 33 34
20 19 21 20 18 20 21 21 22 23 21 20 18 16 15 15 15 14 13 12 12 13 13 14 15 16 16 17 18 19 20 21 22 23 24 25 27 28 30 31 32 33 35 36
19 18 20 16 19 20 21 22 24 24 22 21 19 18 17 16 16 15 15 14 14 15 16 17 18 18 19 20 21 22 23 23 24 25 26 27 29 30 32 33 34 36 37 37
19 19 18 18 19 21 22 23 25 26 25 23 21 21 21 19 17 16 17 17 17 17 17 18 19 20 21 22 23 24 25 26 26 28 29 30 32 33 34 35 37 38 38 38
20 21 20 20 21 20 23 24 24 25 26 25 24 24 24 22 20 18 17 17 18 19 20 21 22 22 23 24 25 27 28 29 30 31 32 33 34 35 36 38 39 39 39 40
22 22 21 20 21 21 23 24 24 24 25 24 25 25 25 23 21 19 19 19 20 21 22 22 24 25 26 27 28 29 30 31 33 34 35 36 36 37 38 39 41 41 41 41
23 24 22 22 21 21 22 23 23 24 25 26 25 24 25 24 22 21 22 22 23 24 24 25 26 28 29 30 31 32 33 35 36 36 37 38 39 40 40 41 42 42 42 43
23 22 20 19 20 21 22 20 20 21 23 24 25 24 22 22 23 23 24 26 26 28 29 29 30 31 32 33 34 35 36 38 39 39 40 40 42 42 43 43 43 44 44 44
24 23 23 20 20 20 20 21 21 20 20 22 21 20 20 22 25 27 27 29 30 32 32 32 33 34 35 36 37 38 39 40 41 41 42 43 44 45 45 45 46 46 46 46
27 25 24 22 22 21 20 21 21 21 21 21 22 22 23 24 25 27 29 31 32 33 34 35 35 36 37 38 39 40 41 42 43 44 45 45 46 47 47 47 48 48 48 48
26 27 26 25 24 22 21 22 22 22 22 22 22 23 25 26 27 29 31 32 34 35 36 37 38 39 40 41 42 43 44 45 46 46 47 48 49 49 49 49 49 50 49 49
27 26 26 26 24 24 24 23 23 23 24 24 25 26 27 28 30 31 32 34 36 37 38 39 40 41 42 44 45 46 46 47 48 49 50 50 51 51 51 51 51 51 51 51
25 26 27 27 26 26 25 25 25 25 26 27 28 29 30 31 32 33 34 36 37 39 40 41 42 43 44 46 47 48 48 49 50 51 52 53 53 54 54 53 53 52 52 51
25 26 27 28 28 28 27 27 28 28 29 30 31 32 33 34 35 36 37 38 40 41 42 43 44 46 47 48 49 50 51 52 53 53 54 55 55 56 56 55 55 54 52 51
25 26 27 28 28 29 29 29 30 31 32 33 34 35 36 37 38 39 40 41 42 43 44 45 46 48 49 50 51 52 53 55 56 56 57 57 57 57 57 57 56 55 54 52
26 27 27 27 28 30 31 32 33 34 35 36 37 38 38 39 40 41 42 43 44 45 47 48 49 50 51 52 53 55 56 57 57 58 58 59 59 59 59 58 57 56 54 52
27 27 27 28 29 30 32 34 35 36 37 38 39 40 41 42 43 44 45 46 47 48 49 50 51 52 53 54 55 56 57 58 58 58 59 59 59 59 59 57 55 54 52 50
27 27 28 30 31 33 34 36 37 39 40 41 42 43 45 46 47 47 48 49 50 51 52 53 54 54 55 56 56 57 57 58 58 59 59 59 59 58 57 55 53 51 49 46
31 31 32 33 35 36 38 39 41 42 43 44 45 47 48 49 50 50 51 52 53 53 53 54 54 55 55 56 56 56 57 57 57 57 57 56 55 54 52 50 48 46 43 40
33 34 35 37 39 40 41 43 44 45 46 47 48 49 50 51 51 52 52 52 52 53 53 53 53 54 54 54 54 54 54 54 53 53 52 50 48 46 44 42 41 38 36 33
36 37 39 41 42 43 44 45 46 47 48 49 50 50 51 51 51 51 52 52 52 52 51 51 51 51 51 50 50 50 50 49 47 46 44 43 41 38 36 35 33 31 29 27
39 40 41 42 43 44 45 47 48 49 49 49 50 50 50 50 50 50 50 50 49 49 48 47 47 46 46 46 45 44 44 42 41 39 38 36 34 33 31 29 27 25 23 22
42 43 44 45 46 46 47 48 48 48 48 49 49 49 49 48 47 47 47 47 46 45 44 43 43 43 42 40 40 39 38 36 35 34 32 31 30 28 26 24 21 19 18 16
44 44 45 46 46 46 46 46 46 47 47 47 46 46 46 45 44 44 43 42 41 40 39 39 38 37 37 36 35 34 33 32 31 30 28 27 25 23 20 18 16 14 13 12
42 43 44 44 44 44 44 44 44 44 44 43 42 41 40 40 39 39 38 37 37 36 35 34 34 33 33 32 31 31 30 30 29 27 25 22 20 17 14 12 10 9 9 9
42 42 42 42 42 42 42 41 41 40 39 38 37 36 36 36 35 35 34 34 33 33 33 32 32 31 31 30 29 28 27 26 24 23 20 18 14 11 8 7 7 7 8 7

GEFSNGP_500_meanwind_090.txt.gz
Wind_Speed
18 18 19 19 20 21 21 20 19 17 16 14 15 14 14 14 14 14 15 15 15 16 16 16 16 17 17 17 17 18 18 18 18 18 19 19 20 21 22 23 24 25 26 27
18 19 19 20 20 22 22 21 20 18 17 17 18 17 17 17 16 16 16 16 17 17 17 17 18 18 19 19 20 20 19 20 20 21 21 22 23 24 25 26 28 29 29 30
18 19 20 20 19 20 20 20 20 19 18 18 19 19 20 20 19 18 18 18 18 18 18 19 19 20 20 21 22 21 21 22 22 23 24 25 26 27 28 30 31 31 32 33
17 18 20 19 20 21 21 21 21 20 20 19 20 20 21 22 22 21 20 20 20 20 20 21 21 22 23 22 23 23 23 24 25 26 27 28 29 30 31 32 33 34 35 36
17 18 19 19 20 21 22 21 21 21 21 22 22 22 22 22 23 23 23 24 24 24 23 23 23 24 25 24 24 25 26 27 27 28 29 30 32 33 34 35 35 36 37 38
18 19 18 17 19 20 21 21 21 22 22 22 22 23 23 23 24 26 27 27 27 27 25 25 26 26 25 25 26 27 28 29 30 30 32 33 34 35 36 37 38 38 39 40
18 18 18 18 20 21 22 22 22 22 23 22 23 23 23 23 25 28 29 30 29 28 27 28 28 27 27 28 28 29 30 30 32 33 34 36 37 38 39 40 40 41 41 42
19 18 18 19 20 21 22 22 22 23 23 24 23 24 24 24 26 28 28 29 29 30 29 30 30 30 29 30 30 31 32 32 34 35 37 38 40 41 41 42 43 44 44 45
19 19 19 19 20 21 21 21 22 23 23 24 24 24 24 25 26 27 28 29 29 29 29 30 31 31 32 32 32 33 34 36 37 38 40 42 43 43 44 45 46 46 47 47
20 20 20 20 20 19 19 21 22 23 23 24 24 24 24 24 25 25 26 27 27 28 30 31 32 33 33 34 34 35 36 38 40 41 43 45 45 46 48 48 49 50 49 50
21 21 21 21 21 21 20 20 21 22 23 22 23 24 24 24 25 26 27 27 27 28 29 31 32 34 36 36 36 38 40 41 43 44 45 47 48 49 50 51 52 52 52 53
22 22 23 22 22 21 21 21 21 21 22 22 22 23 24 24 24 26 27 28 28 29 31 32 33 34 36 38 39 41 42 44 45 47 48 49 50 51 52 53 54 55 56 56
23 23 23 23 23 22 22 22 22 22 23 23 23 24 24 25 25 26 27 29 30 32 33 34 36 37 39 40 41 43 44 45 47 49 50 51 52 54 55 55 57 58 59 60
24 24 24 23 24 24 23 23 24 24 25 25 25 25 26 26 28 29 30 31 33 34 36 37 38 39 41 42 44 45 46 48 49 51 52 54 55 57 58 58 59 60 61 62
24 25 25 25 26 26 25 25 26 25 25 26 26 27 27 28 30 31 32 34 35 36 38 39 40 42 43 45 46 47 49 50 52 54 55 57 58 59 61 62 62 63 63 63
23 24 24 25 26 26 26 26 26 26 27 27 28 29 30 31 32 33 35 36 37 39 40 41 43 44 46 48 49 51 52 54 55 57 58 59 60 61 62 63 64 64 64 64
24 25 25 26 26 26 26 27 28 28 28 28 29 30 31 33 34 36 37 39 40 41 43 44 46 47 49 50 52 53 55 56 57 58 59 60 61 62 63 64 64 64 64 64
23 24 25 25 25 26 27 27 27 28 30 30 31 33 34 36 37 39 40 41 43 44 46 47 49 50 51 52 54 55 56 57 57 58 59 60 60 61 61 61 61 61 60 59
26 25 25 24 24 25 25 26 27 29 30 32 34 36 38 40 41 42 43 45 46 47 48 49 50 51 52 53 54 55 56 56 57 57 57 57 57 57 57 57 56 55 54 52
26 27 27 27 26 27 28 29 30 33 35 37 39 40 41 43 44 45 46 47 47 48 49 50 51 52 53 53 54 54 54 54 54 54 54 53 53 52 50 49 48 47 47 45
28 28 29 30 31 31 33 35 37 38 40 41 42 43 44 45 46 47 47 48 48 49 50 51 51 51 51 51 51 51 52 51 50 50 49 47 46 45 44 43 43 41 40 39
30 31 32 33 34 36 38 40 41 42 43 44 44 45 46 46 47 47 48 48 48 48 49 49 49 49 49 48 48 48 47 46 46 45 44 42 41 41 40 39 38 37 36 35
33 35 37 39 39 40 41 42 43 43 44 44 45 45 45 46 46 46 46 46 46 47 47 46 46 46 45 44 44 44 43 42 42 40 39 39 38 38 37 36 35 34 33 30
37 39 40 41 42 42 43 43 43 44 44 44 44 44 44 44 44 44 44 44 44 44 44 43 43 42 41 41 41 40 39 39 38 37 37 37 36 35 34 32 31 29 26 23
39 40 41 42 42 43 43 43 43 43 43 43 43 43 43 43 43 42 42 41 41 41 41 40 40 39 38 37 37 36 35 35 34 33 33 32 31 30 28 27 25 22 19 16
41 41 41 42 42 42 42 42 42 42 42 41 41 41 41 41 40 40 40 39 39 38 38 37 35 35 35 35 34 33 32 32 31 29 28 27 26 24 22 19 17 15 12 9
40 40 40 41 41 41 41 41 41 41 40 40 39 39 38 38 38 37 36 36 36 35 34 33 33 33 33 32 31 30 28 27 25 23 22 20 19 17 15 13 11 8 5 2

GEFSNGP_500_meanwind_096.txt.gz
Wind_Speed
22 22 22 20 18 18 18 17 17 16 16 17 17 17 16 15 15 14 14 14 14 14 15 15 16 16 17 18 18 19 20 21 22 23 24 25 25 26 27 27 28 28 28 29
22 21 20 19 19 19 18 18 18 17 18 19 18 19 18 18 17 17 17 17 17 17 18 18 18 19 19 20 21 22 23 24 25 26 26 27 28 29 29 30 31 31 31 31
21 20 19 18 19 19 20 19 19 19 20 19 19 19 20 20 20 20 20 20 20 20 21 21 21 22 22 23 23 24 25 26 28 29 29 30 30 31 32 32 32 32 32 32
20 19 18 18 18 18 19 20 20 20 20 20 21 20 20 21 21 22 22 23 24 24 24 24 24 25 25 25 26 27 28 29 30 31 32 33 34 34 34 34 34 33 33 33
20 19 19 19 18 19 20 21 21 21 21 21 21 22 22 22 22 23 24 25 26 27 26 27 27 27 27 28 29 29 30 32 32 33 34 35 36 35 36 35 34 34 34 34
20 20 19 21 19 19 20 20 20 21 21 21 22 23 24 24 24 25 26 26 27 29 30 30 30 30 31 32 32 33 34 34 35 35 36 36 36 36 37 36 36 36 36 36
20 19 20 20 19 19 19 19 20 21 21 22 23 24 24 25 25 26 27 28 29 31 32 33 34 34 35 35 35 36 36 36 36 37 38 38 38 38 38 38 38 38 39 39
18 18 20 20 20 20 20 20 21 21 22 23 24 24 25 26 27 28 29 30 31 32 34 36 36 36 36 36 37 37 37 38 38 37 38 39 39 39 40 40 40 40 42 42
19 19 20 20 20 20 20 21 22 22 23 23 23 24 25 26 27 28 29 30 31 32 34 36 37 38 38 37 38 38 39 38 39 39 40 41 41 41 42 43 43 44 44 45
20 21 21 21 21 21 22 22 22 23 23 24 24 24 25 26 27 28 29 29 29 31 33 35 36 36 36 37 37 38 39 39 40 41 41 42 43 44 45 45 46 47 48 49
21 22 22 22 22 23 23 23 23 23 23 24 25 25 26 26 26 27 27 28 29 31 32 34 35 36 36 36 36 37 39 40 40 42 42 44 45 45 46 47 48 49 50 52
22 21 22 23 23 23 24 24 24 24 25 24 25 25 26 27 27 27 27 28 29 30 31 32 34 36 37 37 37 38 39 40 41 41 42 43 45 46 48 49 51 52 54 55
21 21 22 22 23 24 24 25 25 26 26 26 26 26 26 27 28 28 28 29 30 31 32 33 34 36 37 37 38 38 39 40 41 42 43 45 47 49 51 52 53 55 56 57
21 21 22 23 24 24 25 25 26 26 27 27 28 28 28 28 28 28 29 30 31 32 33 34 35 36 36 37 38 39 40 42 43 45 46 48 50 51 53 54 55 56 57 59
21 22 23 23 24 25 25 26 27 27 28 29 29 30 30 30 30 30 31 32 33 34 35 35 36 37 38 39 40 41 42 44 45 47 48 50 51 53 55 56 57 58 59 60
21 22 23 23 24 25 26 27 27 28 29 30 30 31 32 32 32 33 33 34 35 36 36 37 38 39 39 41 42 43 45 46 48 50 51 53 54 55 56 57 58 59 59 60
21 22 23 24 25 25 26 27 28 29 30 30 31 33 33 33 34 35 36 36 37 37 37 38 39 41 42 43 45 46 48 49 51 52 53 55 55 56 57 57 58 58 58 59
22 22 23 24 25 26 26 27 28 29 30 32 33 34 35 36 36 36 37 38 38 39 40 41 42 44 45 46 47 49 50 51 52 53 54 54 55 55 56 57 57 57 57 57
23 23 24 25 26 27 28 29 30 31 32 33 35 35 36 36 36 37 39 40 40 41 42 43 45 46 47 48 49 50 51 52 53 54 54 54 55 55 55 54 54 53 53 52
24 25 26 27 27 28 29 30 31 32 33 34 35 36 37 38 40 41 42 42 43 44 44 46 46 47 48 49 50 50 51 52 52 53 53 53 53 53 52 51 50 49 48 47
26 27 27 28 29 30 31 32 34 35 36 37 38 39 39 40 41 42 42 43 44 44 45 46 47 47 48 48 48 49 49 50 50 50 49 49 49 49 48 47 45 44 42 40
27 28 29 30 31 33 34 35 36 38 39 40 40 41 41 41 42 42 43 43 44 44 44 45 46 46 46 46 46 47 47 47 46 46 45 44 44 43 42 41 40 38 36 35
28 29 31 33 34 35 36 37 38 39 40 40 40 41 41 42 42 43 43 43 43 43 43 44 44 44 44 44 44 44 43 42 42 41 40 39 38 37 36 35 34 33 32 31
30 31 33 34 36 37 38 39 39 40 40 41 41 41 42 43 43 43 42 42 42 42 42 42 42 41 41 41 40 39 39 38 37 36 35 34 33 32 31 29 28 27 26 26
33 34 34 35 36 37 38 38 39 40 40 40 41 41 41 41 40 40 40 40 40 40 40 39 38 37 37 36 36 35 34 34 32 31 29 28 27 26 25 23 23 22 21 20
33 34 35 35 36 37 38 38 39 39 39 39 39 39 39 39 39 38 38 38 37 37 36 35 34 34 33 33 32 31 31 29 27 26 25 24 23 22 20 20 19 18 15 13
33 34 35 36 36 37 37 37 37 37 37 37 37 37 37 36 36 35 35 35 34 33 32 31 31 30 30 29 28 27 25 24 23 22 21 20 19 18 16 15 13 11 9 7

GEFSNGP_500_meanwind_102.txt.gz
Wind_Speed
29 27 27 23 19 18 18 18 20 21 23 23 22 20 17 16 16 15 15 14 13 13 12 12 13 12 12 13 14 15 16 17 17 18 19 19 20 21 22 23 24 25 26 27
31 28 26 23 21 19 17 19 21 23 25 24 24 21 19 19 19 18 17 17 16 16 16 15 14 15 15 16 17 17 18 19 20 20 20 21 22 23 25 26 27 27 28 29
31 27 27 24 22 21 21 22 22 23 25 26 24 23 21 20 20 20 19 19 19 19 19 18 18 19 19 19 20 20 21 22 23 23 23 24 25 26 27 28 29 30 31 31
30 28 27 25 24 23 22 23 24 25 26 26 24 22 22 21 21 21 21 21 21 21 21 21 21 22 23 23 24 24 25 25 26 27 27 28 28 29 30 31 31 32 33 33
30 30 28 25 25 24 22 23 25 25 25 26 24 24 22 20 21 22 23 23 24 24 24 24 25 25 25 26 27 27 28 28 29 30 31 31 31 31 32 33 34 34 35 35
26 27 27 26 25 24 24 24 24 25 26 26 24 24 21 21 21 23 24 25 25 25 26 27 27 27 28 28 29 30 31 31 32 34 33 34 34 34 35 35 36 36 37 38
27 27 26 26 24 22 24 25 24 23 24 23 23 23 23 22 22 23 23 25 26 27 27 28 29 29 30 31 31 32 34 35 36 36 36 36 36 36 36 36 38 38 38 38
27 29 28 27 25 23 23 23 22 22 22 22 23 24 24 23 24 24 25 25 26 28 28 29 31 31 32 33 34 34 36 37 37 38 39 39 39 38 38 38 40 41 39 38
27 28 27 26 25 23 23 23 22 21 22 23 23 24 24 25 25 26 27 27 28 29 30 30 31 33 34 34 34 35 36 38 38 38 39 39 39 40 40 40 40 40 39 40
25 26 25 25 25 26 24 22 21 21 22 22 23 24 24 24 25 26 27 27 28 28 29 30 31 32 33 34 34 34 36 36 35 36 38 37 37 38 40 40 40 41 42 43
22 22 21 21 21 21 21 21 21 22 23 23 23 23 24 24 25 25 26 27 28 29 29 30 31 32 33 33 33 35 35 36 36 36 37 37 37 38 39 40 41 41 42 44
16 17 15 15 17 18 20 20 21 22 22 23 23 23 24 24 25 26 27 27 28 29 30 31 31 32 33 33 33 34 35 35 36 36 37 37 37 38 40 41 41 42 43 45
16 16 16 18 18 19 21 21 22 22 23 23 24 24 25 25 26 27 28 28 29 29 30 31 31 32 32 33 35 36 37 37 38 39 39 39 39 40 41 41 42 43 44 45
18 18 18 19 19 20 21 22 22 23 24 24 25 25 26 27 27 28 29 30 30 31 31 31 31 32 33 34 35 36 37 38 39 40 40 41 41 42 43 43 44 44 46 47
16 17 18 19 20 20 21 22 22 23 24 25 26 27 27 27 28 29 29 30 30 31 31 32 33 34 35 36 36 37 37 38 39 39 40 42 43 44 44 45 46 47 48 49
16 18 18 19 20 20 22 23 23 24 24 25 27 27 28 28 29 30 31 31 32 32 32 33 34 36 37 37 37 38 39 40 41 42 43 44 45 45 46 47 48 49 51 52
17 18 18 19 20 21 22 23 24 25 26 27 28 29 29 30 31 32 33 33 34 35 36 36 37 38 38 38 38 39 40 41 42 43 44 45 46 47 48 49 50 51 52 53
18 19 19 20 20 22 23 23 24 26 27 28 29 31 32 33 33 34 35 36 36 37 38 38 38 39 39 40 40 41 42 43 44 45 46 47 48 49 50 51 51 52 52 52
19 20 20 21 22 23 24 25 26 27 28 29 30 31 32 33 34 35 36 36 37 38 39 39 39 40 41 41 42 44 44 45 46 47 48 49 49 49 50 50 50 50 49 50
20 21 22 23 24 26 27 28 29 30 31 31 32 33 34 35 36 36 37 38 39 39 40 41 41 42 43 43 44 44 45 46 46 47 47 47 47 48 47 47 47 47 47 47
22 23 24 25 26 27 28 29 30 31 32 33 34 35 36 37 37 38 39 40 41 41 41 42 42 42 43 43 44 44 45 45 45 45 45 45 45 45 44 44 44 44 44 43
23 25 26 27 28 29 30 31 32 33 34 35 36 37 38 39 39 40 40 41 41 41 41 42 42 42 42 42 42 42 42 42 42 42 42 42 41 41 40 40 40 39 38 37
25 26 27 29 30 31 32 33 34 35 35 36 38 38 39 39 39 40 41 41 41 41 41 41 41 41 41 40 40 39 39 39 39 39 39 38 37 36 36 36 35 34 33 31
26 28 29 30 31 33 34 35 36 36 37 38 38 39 39 39 40 41 41 40 40 40 40 40 39 39 39 38 38 37 37 37 37 36 35 34 33 32 32 31 30 28 27 26
28 30 31 32 33 34 36 37 37 37 37 38 39 39 39 39 40 39 39 38 38 37 38 38 37 37 37 36 35 35 35 34 33 31 30 30 29 29 29 28 26 24 23 22
29 30 32 33 34 35 36 37 37 37 38 38 38 38 38 38 38 37 37 36 36 36 36 35 35 34 33 32 31 30 30 29 28 28 28 27 27 26 25 24 21 19 18 18
30 32 33 34 35 36 36 37 37 37 37 37 37 36 36 36 35 34 34 34 34 33 33 32 32 31 30 29 28 27 27 27 27 26 25 25 23 22 20 18 16 15 14 14

GEFSNGP_500_meanwind_108.txt.gz
Wind_Speed
37 35 34 33 32 30 28 27 26 24 21 20 18 16 15 13 11 9 8 6 6 6 7 8 8 7 7 10 10 12 12 12 14 15 16 17 18 19 21 22 24 25 25 26
40 37 36 35 33 32 30 28 27 26 24 22 20 19 17 14 11 10 9 8 8 9 9 9 9 10 10 11 11 12 13 14 15 17 18 19 20 21 23 24 24 25 27 28
39 39 38 37 35 33 33 32 30 27 24 22 19 18 16 14 13 12 12 11 11 11 11 11 12 13 13 14 14 14 15 16 18 19 20 21 22 22 23 26 27 27 28 29
38 38 40 36 34 34 33 31 29 27 25 21 19 17 16 15 15 14 13 13 13 14 14 14 14 15 16 17 17 17 18 19 20 22 23 24 24 24 26 27 29 29 30 31
37 37 37 35 33 32 30 30 28 26 25 22 19 18 17 16 16 15 14 14 14 15 16 16 16 17 18 19 20 21 22 22 22 24 25 26 26 26 27 28 29 30 31 31
31 33 33 32 31 32 31 30 27 24 21 20 20 19 18 18 16 14 14 15 16 16 18 19 20 20 21 22 23 23 24 25 26 26 28 28 28 29 30 30 31 32 33 34
28 30 30 29 29 31 31 27 25 23 22 21 20 19 19 19 16 15 16 17 18 18 19 20 21 22 22 24 25 26 27 28 29 30 30 31 32 33 33 33 34 34 34 36
27 28 28 27 27 28 28 26 25 24 23 22 20 18 18 18 17 16 17 18 19 20 21 21 22 23 24 25 27 28 29 29 30 31 31 32 34 33 32 33 33 34 35 35
24 26 27 26 25 24 24 24 24 23 22 21 19 18 17 17 17 17 18 19 20 21 21 23 24 25 26 27 28 29 30 31 31 32 32 33 32 33 33 34 34 35 35 35
20 21 23 22 21 22 22 23 20 20 19 19 18 17 16 16 16 16 18 19 20 21 22 23 24 25 27 28 29 30 31 31 32 32 33 34 34 35 35 35 35 36 36 36
17 17 18 19 18 18 18 19 19 20 19 19 19 17 17 16 16 17 18 19 20 21 23 24 25 27 28 29 30 31 32 33 34 34 35 35 36 36 36 37 38 38 38 39
12 13 13 14 14 16 17 17 17 18 17 16 16 15 16 17 17 18 19 20 21 22 24 25 26 28 29 30 31 32 33 34 34 34 35 36 36 37 38 38 38 38 39 41
8 8 9 11 11 11 11 11 11 13 13 13 13 14 16 17 18 19 20 21 22 23 25 26 27 28 30 31 32 33 34 35 36 36 37 38 38 38 39 40 40 41 42 43
6 6 6 8 8 9 10 11 10 11 12 13 14 16 17 18 19 21 22 23 24 25 26 28 29 30 31 32 33 33 34 35 36 37 38 39 40 40 40 41 42 43 44 44
5 6 6 6 6 7 8 9 10 11 12 14 15 16 18 19 21 22 23 24 25 26 27 29 30 31 32 33 34 34 35 37 38 39 40 41 41 41 42 43 43 44 45 45
4 4 4 5 6 7 8 9 10 12 13 15 16 18 19 21 22 24 25 26 27 28 29 30 31 32 33 34 35 36 37 38 39 40 40 41 41 42 43 43 44 45 46 48
4 3 3 4 5 7 8 10 12 13 15 16 18 20 21 22 23 25 26 27 28 29 30 31 32 34 35 36 37 38 39 40 41 41 42 42 43 44 45 46 47 47 48 49
6 6 6 6 7 9 10 11 13 15 17 19 20 21 23 24 25 26 27 28 29 31 32 33 34 35 36 37 38 39 40 41 41 42 43 43 44 45 46 47 47 48 49 49
8 8 8 9 10 11 13 15 16 18 19 20 22 23 24 25 26 27 29 30 31 32 33 35 36 37 38 38 39 39 40 40 41 41 42 43 44 45 45 46 46 46 46 46
9 10 11 12 13 14 16 17 18 19 20 22 23 25 26 27 28 30 31 32 33 34 35 36 37 37 37 38 38 39 39 40 41 41 42 42 43 43 43 43 43 44 44 44
11 12 13 15 16 17 19 20 21 22 23 24 25 26 28 29 31 32 33 34 35 35 36 36 37 38 38 39 39 39 40 40 40 40 41 41 41 41 41 41 41 41 41 40
14 15 16 17 19 20 21 22 24 25 26 27 28 29 30 32 33 34 35 35 36 36 37 37 38 39 39 39 39 39 38 38 38 39 39 39 38 38 38 37 37 36 35 34
16 18 19 20 21 23 24 25 26 27 28 29 30 32 33 34 34 35 35 35 36 37 37 37 38 37 37 37 37 37 37 37 37 36 36 35 34 33 33 32 32 31 30 30
19 20 21 22 24 25 26 27 28 29 30 31 32 33 34 34 35 35 35 35 36 36 36 36 36 35 35 36 35 35 34 34 33 32 31 31 30 30 29 29 28 27 26 25
21 22 23 24 26 27 28 29 30 31 32 33 33 33 34 34 34 34 34 35 35 35 35 35 34 34 34 33 33 32 31 30 29 29 28 28 27 27 26 24 23 22 21 20
23 24 25 26 27 28 29 30 31 32 32 33 33 34 34 34 34 34 34 34 34 34 33 33 32 31 31 30 29 28 27 26 26 25 25 24 24 22 21 20 19 19 18 16
24 25 27 28 29 30 31 31 31 32 33 33 33 33 33 33 33 32 32 32 31 30 30 30 29 28 27 27 26 25 24 24 23 22 21 20 19 18 17 17 16 15 14 13

GEFSNGP_500_meanwind_114.txt.gz
Wind_Speed
35 33 33 33 32 32 31 29 28 24 22 19 18 17 16 15 14 13 12 13 13 13 12 12 11 10 10 11 11 12 13 14 16 18 19 20 20 20 20 21 22 24 25 27
39 37 37 36 34 33 33 32 30 27 24 22 20 19 18 17 16 15 14 15 16 15 14 13 13 12 11 11 11 12 13 14 16 17 19 20 20 21 21 22 23 24 27 28
41 40 40 40 35 34 33 33 31 30 27 24 23 22 21 20 19 18 17 17 17 16 15 15 14 13 12 12 12 13 13 14 16 18 18 19 20 21 23 24 24 26 27 29
39 38 40 36 33 33 32 32 32 31 28 26 24 23 22 20 20 20 19 18 18 17 17 17 17 16 16 15 15 15 16 17 18 19 20 21 22 23 24 25 27 28 29 30
34 35 35 32 31 31 32 32 31 30 29 28 27 25 23 21 21 20 20 20 19 19 19 19 19 19 19 19 18 19 19 19 20 21 22 23 24 25 27 28 29 30 31 33
31 32 32 28 28 29 30 31 29 29 29 28 28 26 24 23 21 21 21 20 20 21 21 20 20 20 20 20 21 21 22 23 23 24 24 25 26 28 29 29 30 31 33 34
27 28 27 26 26 26 28 27 27 28 28 28 26 26 25 24 23 22 21 20 20 21 22 21 21 21 22 22 23 24 25 26 26 27 28 29 30 31 32 32 32 33 34 36
25 26 24 22 23 24 25 25 25 26 27 27 27 26 25 24 23 22 21 20 20 20 21 22 23 23 23 23 24 25 26 28 28 29 29 30 31 31 31 32 33 34 35 36
21 22 22 22 22 22 23 23 24 23 24 25 25 25 24 23 22 23 22 21 21 22 22 23 23 23 23 24 25 26 27 27 28 29 31 32 32 33 33 34 34 35 35 37
19 19 20 19 19 20 21 22 22 22 22 23 24 23 23 22 22 22 22 21 22 22 22 22 23 23 25 25 26 27 27 28 29 30 32 33 34 35 35 36 36 36 37 38
18 18 18 19 19 19 20 20 21 21 21 22 22 23 23 23 23 22 22 22 22 22 23 23 24 25 26 26 27 28 29 30 32 33 34 34 35 36 37 37 38 38 39 39
14 14 16 17 18 19 20 20 21 21 21 21 22 21 21 22 22 22 22 22 22 22 23 24 24 25 26 27 29 30 31 32 33 34 35 36 37 38 38 38 39 40 40 41
11 11 12 13 16 18 19 19 19 20 20 19 19 19 20 21 21 21 21 20 21 22 23 24 25 26 27 29 30 32 33 34 35 36 37 38 38 39 40 41 41 42 43 44
7 8 9 10 12 14 15 16 16 17 17 18 18 18 18 19 20 20 21 21 22 23 24 25 26 27 29 30 31 32 34 35 37 38 38 39 40 41 42 43 44 45 46 46
6 7 8 9 11 12 13 14 15 15 15 15 16 16 17 18 18 19 20 21 22 23 24 26 27 28 30 31 32 33 35 36 37 38 39 41 42 44 45 45 46 46 47 47
5 6 8 9 10 11 12 12 13 13 13 14 15 16 16 16 17 18 20 21 22 24 25 27 28 29 31 32 33 35 36 37 39 40 41 43 44 45 45 46 46 47 47 48
4 5 7 9 10 10 9 9 10 12 12 13 13 14 15 16 17 18 20 22 23 25 26 28 29 31 32 34 35 37 38 39 41 42 43 43 44 45 45 46 46 47 48 48
5 6 7 7 7 7 7 7 8 9 10 11 12 13 15 17 18 20 22 23 25 27 29 30 32 33 34 36 37 38 40 41 42 43 43 44 45 45 46 47 47 48 48 48
7 6 6 6 6 6 6 7 8 9 10 12 14 15 16 18 20 22 24 26 28 30 31 32 34 35 37 38 39 40 41 42 43 44 44 45 46 46 47 47 47 47 47 47
8 7 7 7 7 7 8 9 10 12 13 15 17 18 20 21 23 25 27 28 30 31 33 34 35 37 38 39 40 41 42 43 43 44 44 45 45 45 45 45 45 44 44 44
9 9 9 9 9 10 11 12 14 15 17 18 20 22 23 24 26 27 29 30 31 33 34 35 36 38 39 39 40 41 42 43 43 43 43 43 43 43 43 42 41 41 41 40
10 11 11 12 13 14 15 16 17 19 20 22 23 24 25 27 28 30 31 32 33 34 35 36 37 38 39 39 40 41 41 41 41 41 41 41 40 40 40 39 38 38 37 36
12 12 13 14 15 17 18 19 20 21 22 24 25 27 28 29 30 31 32 33 34 35 36 36 37 38 38 39 39 39 39 39 39 38 38 38 37 36 35 34 33 32 32 31
13 14 15 17 18 19 20 21 22 23 25 26 27 28 29 30 31 32 33 34 35 35 35 36 36 37 37 37 37 37 36 36 35 35 34 33 32 32 31 30 29 28 27 27
15 16 17 18 19 21 22 23 24 25 26 27 28 30 31 31 32 33 33 34 34 34 35 35 35 35 35 34 34 34 34 33 32 31 30 29 28 28 27 26 25 25 24 23
17 18 19 20 21 22 23 25 26 27 28 29 30 31 32 32 33 33 34 34 34 34 34 34 33 33 32 32 32 31 30 29 28 28 27 26 25 24 23 22 21 20 20 19
18 19 20 22 23 24 25 26 27 28 29 30 31 31 32 32 33 33 33 32 32 32 32 31 30 30 30 30 29 28 27 26 25 24 23 22 21 20 19 18 17 17 17 17

GEFSNGP_500_meanwind_120.txt.gz
Wind_Speed
28 28 28 27 26 26 26 26 25 23 22 21 21 19 18 16 15 15 14 13 12 11 10 9 9 9 10 11 12 12 13 13 14 15 16 17 19 20 21 21 22 22 22 23
30 30 30 30 28 28 28 28 27 26 24 23 23 21 20 19 17 17 16 15 14 13 12 11 11 10 10 11 12 12 13 13 14 15 16 18 20 21 21 22 22 23 23 24
32 32 33 32 29 30 30 29 29 28 26 26 26 24 22 21 20 18 18 17 16 15 14 13 12 12 11 12 12 12 13 14 14 15 16 18 20 21 22 22 23 24 24 25
32 32 34 30 29 29 30 30 31 30 29 28 28 26 24 23 22 21 20 19 18 17 16 15 14 14 14 13 13 13 14 15 16 16 17 18 20 21 23 24 25 26 27 27
31 31 31 29 29 28 29 29 30 30 29 28 27 27 26 24 23 22 21 21 20 19 18 18 17 16 16 16 17 16 16 17 17 18 18 19 20 21 22 24 26 27 28 29
29 29 30 28 27 26 27 29 28 28 28 27 27 28 27 25 24 23 22 22 21 21 20 19 19 19 19 19 19 19 19 19 19 20 20 21 21 23 24 25 27 29 30 31
27 28 28 27 25 25 26 27 26 27 27 28 28 28 27 26 25 24 23 23 23 23 22 21 21 21 21 21 21 21 22 22 22 22 23 24 25 25 26 28 29 31 32 33
25 26 26 25 24 24 25 25 25 25 26 28 29 28 28 28 27 26 26 25 25 24 24 24 23 23 23 23 24 25 24 24 24 25 25 26 27 28 29 30 31 32 33 35
23 24 25 24 23 23 24 24 24 25 26 27 28 28 29 29 28 28 27 27 26 26 26 26 25 24 25 25 25 25 26 25 26 27 27 28 29 30 32 33 33 34 36 37
21 21 22 22 22 23 23 24 24 25 26 27 27 28 29 28 28 28 28 28 27 26 25 25 25 25 26 25 25 25 26 27 27 28 29 30 31 32 33 34 35 36 37 38
19 19 20 20 20 21 22 23 23 24 25 26 27 27 28 28 27 26 26 25 25 25 25 25 26 26 26 26 27 27 28 28 28 30 30 31 32 33 34 35 36 37 38 39
17 17 18 18 18 20 21 22 22 23 24 25 26 27 27 26 26 25 24 24 25 24 24 25 26 26 27 27 28 28 29 29 30 31 31 32 34 35 36 37 38 39 40 41
13 15 16 16 17 19 20 20 21 22 23 24 25 25 25 24 24 23 24 24 25 24 25 25 26 26 26 27 28 28 29 30 31 32 33 34 35 36 37 38 39 41 42 43
11 11 11 12 13 16 18 18 19 19 20 21 22 22 23 24 24 23 23 23 23 24 24 25 26 27 28 27 27 27 28 29 30 32 33 34 35 37 38 40 41 42 43 44
8 8 8 9 11 13 14 15 15 16 18 19 19 20 20 21 21 21 21 21 22 23 24 24 25 25 25 26 26 27 28 30 31 32 34 36 37 39 40 42 43 45 46 47
7 6 6 7 7 10 11 13 15 15 16 16 16 16 16 16 17 18 18 20 21 21 21 22 23 24 25 25 27 28 30 31 33 35 36 38 39 41 42 43 44 45 47 48
6 6 7 8 8 9 10 10 11 12 12 12 12 13 14 15 16 16 17 17 18 19 20 21 22 23 25 26 28 30 31 33 35 36 38 39 41 42 43 44 45 46 47 47
5 5 6 6 8 8 8 9 10 10 10 11 11 11 12 13 14 14 15 16 17 19 20 22 23 24 26 28 29 31 33 35 36 37 39 40 42 43 44 44 45 46 47 47
6 6 6 7 7 7 8 8 8 9 9 9 9 9 11 11 12 14 15 17 18 20 22 23 25 26 28 30 32 33 35 36 38 39 40 41 42 42 43 44 44 44 44 45
7 6 7 7 7 7 7 8 8 9 9 8 9 10 11 12 13 15 17 19 20 22 24 26 28 29 31 32 34 35 36 37 38 39 40 41 41 42 42 42 42 43 43 42
8 7 8 7 7 7 7 7 6 6 7 8 10 11 13 15 17 19 20 22 24 26 27 29 30 32 33 34 35 36 37 38 39 40 41 41 41 42 41 41 41 41 40 39
8 8 8 7 6 7 7 7 7 9 10 12 13 15 17 19 21 22 24 25 27 28 30 31 32 33 34 35 36 37 38 38 39 39 40 40 40 40 39 38 38 37 36 34
9 9 9 8 8 8 9 10 11 13 14 15 17 19 20 22 23 25 26 28 29 31 32 33 33 34 35 36 36 37 37 37 38 38 38 37 36 36 35 34 33 32 31 30
10 10 10 10 10 11 12 13 14 16 17 19 20 22 23 24 26 27 29 30 31 32 33 33 34 35 35 35 35 35 35 35 35 35 35 34 33 32 31 30 29 28 26 25
11 11 12 12 13 14 15 16 17 18 20 21 22 24 25 26 28 29 30 31 32 33 33 34 34 34 34 34 33 33 33 33 32 32 31 30 29 27 26 25 24 23 22 21
13 13 13 15 16 16 17 18 19 21 22 23 24 25 27 28 29 30 31 32 32 32 32 32 32 32 32 31 31 31 30 30 29 28 27 26 24 23 23 21 20 19 19 18
14 15 16 17 18 18 19 21 22 23 24 26 27 27 28 29 30 30 31 31 30 30 30 30 30 30 30 30 29 28 27 27 26 25 24 23 22 21 20 19 18 17 17 17

GEFSNGP_500_meanwind_126.txt.gz
Wind_Speed
27 26 25 24 24 24 24 25 25 24 24 25 26 25 23 21 20 20 19 19 18 16 14 13 11 10 10 10 10 10 10 11 10 11 11 12 13 14 15 16 17 17 18 19
28 26 25 25 23 24 24 24 24 25 27 27 29 27 26 25 24 21 20 20 20 18 17 15 13 12 11 11 10 10 11 11 12 12 12 13 13 14 15 16 17 18 19 21
28 26 27 27 25 24 24 25 26 27 30 31 31 32 30 29 27 25 23 22 21 20 18 16 15 15 13 12 12 12 12 11 12 13 13 14 14 15 16 17 18 19 20 21
28 28 30 26 27 29 29 29 30 32 33 33 33 33 32 31 30 27 25 24 22 22 20 18 17 17 15 14 13 13 13 13 13 13 13 15 16 16 17 18 19 20 20 20
29 28 28 26 28 29 30 31 33 34 34 34 34 33 33 33 31 28 26 26 25 23 22 21 19 18 17 16 16 15 14 15 15 16 16 16 17 17 18 19 19 20 21 22
27 28 27 26 28 28 29 30 33 33 32 33 33 33 33 33 31 28 27 27 26 25 24 23 22 21 20 18 18 17 17 17 17 18 18 18 18 18 19 19 20 21 22 24
26 27 27 28 29 29 30 31 31 30 31 31 32 32 32 32 31 29 28 27 26 26 25 24 24 24 22 20 19 19 19 19 19 19 18 19 20 20 21 21 22 24 24 25
25 26 27 29 29 30 31 31 31 30 29 30 30 30 30 30 30 29 29 28 27 27 26 26 25 25 24 23 22 22 21 22 22 21 21 23 24 24 24 25 26 27 27 28
26 28 29 30 30 29 29 29 30 30 29 29 29 29 30 30 29 29 29 28 28 28 28 28 27 26 26 25 25 24 24 24 24 24 25 25 26 27 27 28 28 29 30 31
27 27 29 29 29 29 30 30 30 30 29 29 29 29 29 30 28 28 28 28 29 28 28 28 28 28 27 27 26 26 26 26 26 26 26 27 28 28 29 30 31 32 33 34
24 25 26 26 27 27 27 27 28 28 28 28 28 28 29 28 28 29 29 28 28 29 29 29 28 27 27 26 26 26 26 26 26 27 27 28 28 29 31 32 33 34 35 36
23 24 24 23 23 24 24 24 25 26 27 27 27 28 28 28 28 29 29 28 28 29 29 28 27 26 26 26 26 26 26 26 26 27 28 29 30 31 32 33 34 35 35 36
22 21 20 20 21 21 20 20 20 21 23 24 25 26 26 27 26 26 25 25 25 25 25 25 25 24 24 25 25 26 26 26 27 28 29 31 31 32 33 34 35 35 37 38
18 17 17 18 17 17 17 18 19 19 20 21 22 23 24 23 23 23 23 23 23 23 23 23 23 23 23 23 24 25 25 26 27 29 30 32 33 33 34 36 36 37 38 40
15 14 14 15 14 14 15 16 17 16 17 18 19 20 20 19 19 19 20 21 20 20 21 21 21 21 20 21 23 25 26 27 29 30 32 33 34 35 36 37 38 39 40 41
12 12 11 11 11 12 12 12 13 13 14 15 15 15 15 16 16 16 16 16 17 17 18 18 19 20 21 22 24 26 28 29 30 31 32 33 34 35 36 37 39 40 41 42
10 10 10 9 9 10 11 11 11 11 11 11 11 12 12 12 13 13 14 15 15 16 16 17 18 20 21 23 25 27 28 29 29 30 31 32 34 35 36 38 39 40 41 42
10 10 9 8 7 7 8 8 8 8 8 8 8 9 10 10 11 11 12 12 13 14 16 18 19 21 22 23 24 26 27 28 29 30 31 33 34 35 37 38 40 41 42 43
10 9 8 7 7 7 7 7 7 7 8 8 8 8 9 10 10 10 11 13 14 15 16 17 18 20 21 22 24 26 27 28 30 31 33 34 35 37 38 40 41 41 42 42
10 8 7 6 6 6 6 6 6 6 6 6 7 7 7 8 9 10 11 12 13 14 16 17 19 20 21 23 24 26 28 29 31 33 34 35 36 38 39 39 40 40 41 41
10 9 9 9 8 7 6 5 5 5 4 4 4 5 6 7 9 10 12 13 14 15 17 19 20 22 23 25 27 28 30 31 33 34 35 36 37 38 38 38 38 38 38 38
10 10 10 9 8 7 7 6 6 6 6 6 6 7 8 9 10 11 13 14 16 18 19 21 23 25 26 28 29 30 32 33 34 34 35 35 35 35 35 35 35 35 34 34
10 10 9 8 7 7 7 6 6 6 6 7 8 9 10 11 13 14 16 18 19 21 23 24 26 27 29 30 31 31 32 33 33 33 33 33 33 33 33 33 32 31 31 30
9 8 7 6 6 6 6 6 6 7 8 9 10 11 13 14 16 18 19 21 22 24 25 27 28 29 30 30 31 31 31 31 31 32 32 32 31 31 30 30 29 29 28 28
9 8 8 7 7 6 6 7 8 9 10 12 13 15 16 18 19 21 22 24 25 26 27 28 29 30 30 30 30 30 30 30 30 30 30 30 29 29 28 28 28 27 26 25
10 10 9 9 9 9 10 10 11 13 14 15 17 18 19 21 22 24 25 26 27 28 29 30 30 30 30 30 30 30 30 29 29 29 28 27 26 26 26 25 24 24 23 23
11 10 10 11 12 12 13 13 15 16 17 18 20 21 23 24 25 26 27 28 29 29 29 29 29 29 29 29 28 28 28 27 27 26 25 25 24 23 23 23 23 22 22 22

GEFSNGP_500_meanwind_132.txt.gz
Wind_Speed
28 28 29 27 27 28 28 28 27 27 26 26 25 25 23 21 19 19 18 16 14 15 14 12 11 10 9 9 8 8 7 8 9 11 12 13 14 15 17 18 19 19 20 20
31 30 29 28 29 30 30 30 30 30 29 28 26 25 23 21 20 20 20 19 17 16 16 13 12 12 11 10 11 10 10 10 11 11 12 13 14 16 16 16 17 19 20 21
32 30 29 30 30 32 33 32 32 33 32 31 29 27 26 24 23 22 21 21 20 19 16 15 14 13 13 13 12 13 13 13 13 13 13 13 15 16 18 17 17 18 19 20
31 31 31 30 31 32 32 31 31 31 31 31 30 28 27 25 25 24 23 23 21 19 18 17 16 15 14 14 14 14 14 14 14 14 14 15 16 16 18 19 19 20 21 22
31 31 31 31 31 32 32 32 31 30 30 31 32 31 29 28 27 26 26 25 23 21 20 18 17 16 16 16 16 16 15 14 14 14 14 15 16 18 19 19 20 21 22 22
31 30 29 28 29 31 32 32 31 31 31 31 32 33 31 30 29 29 28 27 25 23 21 20 19 18 17 17 17 17 17 16 15 15 15 16 17 18 19 19 20 21 21 23
29 30 29 27 27 29 30 30 30 31 32 32 33 33 32 31 30 28 27 27 26 24 22 21 20 19 19 19 18 18 18 17 17 17 17 18 18 19 19 20 20 20 21 22
28 28 28 26 27 29 30 29 30 30 31 32 32 31 31 30 28 27 26 27 26 24 23 22 22 21 21 20 20 19 19 19 19 19 19 19 20 20 21 21 22 22 22 23
29 27 26 26 26 27 27 28 28 29 30 31 31 30 29 27 25 25 25 25 26 24 23 22 22 22 22 21 21 21 21 21 20 21 21 21 21 21 22 22 23 24 24 26
27 27 27 26 25 26 25 26 27 28 28 28 28 27 26 26 25 25 24 24 25 24 23 23 23 23 22 22 22 22 22 22 22 22 22 22 23 23 24 24 25 26 27 28
25 25 26 25 25 25 25 26 25 25 25 25 25 25 25 24 24 23 23 23 23 23 23 23 23 23 23 23 23 23 22 22 22 22 23 24 24 24 24 25 25 26 27 28
23 22 22 22 23 23 24 24 24 22 22 23 23 23 23 22 23 23 22 22 23 23 23 23 23 23 23 22 22 22 22 22 22 22 23 23 24 24 25 26 26 27 28 29
21 21 20 19 18 19 20 20 20 20 20 21 21 21 21 21 22 22 22 22 22 22 22 22 21 21 21 20 20 20 20 21 21 22 23 23 25 26 27 27 29 30 31 32
20 20 19 17 16 16 16 16 16 17 18 18 18 18 19 19 20 20 20 20 20 20 19 19 19 20 20 19 19 20 20 20 21 22 24 25 26 26 27 28 30 31 33 34
18 17 16 15 14 14 14 14 14 14 14 15 15 16 16 16 16 17 17 18 18 17 17 18 18 18 18 18 18 18 20 21 23 24 25 25 27 28 29 30 32 33 34 35
16 15 14 14 13 13 13 12 12 11 11 11 12 13 13 14 14 14 15 15 15 15 15 15 16 16 16 17 18 19 20 21 22 24 25 26 27 29 30 31 32 33 34 36
13 13 13 12 12 12 11 11 11 10 10 9 10 10 11 12 11 11 12 12 12 13 13 14 15 15 16 17 18 18 19 20 22 24 25 26 28 29 31 32 33 34 35 36
12 11 11 11 10 10 10 11 10 10 9 9 9 9 8 8 9 9 10 10 11 11 12 13 14 14 15 16 17 18 19 21 23 25 26 28 29 30 31 32 33 34 35 36
11 10 10 9 9 8 9 9 8 7 6 6 6 6 6 7 8 9 9 9 9 10 11 11 12 14 14 15 16 17 19 21 23 24 25 27 28 29 31 32 34 35 36 37
10 10 9 8 8 8 8 8 7 6 5 5 5 6 6 6 7 7 8 8 9 10 10 11 12 13 15 16 18 19 21 22 23 25 26 28 29 31 32 33 34 35 36 36
11 11 10 9 8 9 9 8 7 7 6 5 6 6 6 6 6 6 7 7 8 9 10 12 13 15 16 17 18 20 22 23 25 27 28 30 31 32 33 33 34 34 35 35
12 11 10 10 9 9 9 8 7 6 5 5 4 4 4 5 5 6 7 9 10 11 13 13 15 16 17 19 20 22 23 25 27 28 30 31 32 32 33 33 34 34 34 34
12 12 11 11 10 10 9 8 7 6 6 5 5 5 6 6 7 9 10 11 12 13 14 15 17 18 20 22 23 25 26 28 29 30 31 31 32 32 31 32 32 32 31 31
12 12 12 12 11 10 9 8 7 6 6 6 6 7 8 8 9 10 11 12 14 15 17 19 20 22 23 25 26 27 28 29 29 30 30 30 30 29 29 29 29 29 29 29
12 12 12 11 10 9 9 8 7 7 7 7 8 9 10 11 13 14 15 16 17 19 20 22 23 24 25 26 27 28 28 29 28 28 28 28 28 28 28 28 28 28 27 26
11 11 10 9 9 8 8 8 8 9 9 9 11 12 13 15 16 17 18 19 20 22 23 24 25 25 26 27 27 28 28 28 27 26 26 26 26 27 27 27 26 25 25 25
10 9 8 7 7 7 8 8 9 10 11 12 13 15 16 17 18 19 20 21 22 23 24 24 25 25 26 26 26 27 26 26 25 25 25 25 25 26 25 24 24 23 23 23

GEFSNGP_500_meanwind_138.txt.gz
Wind_Speed
24 24 24 24 24 23 23 21 21 20 20 19 19 18 18 17 16 14 14 14 14 14 14 13 12 11 11 10 10 10 10 9 9 10 11 13 13 14 16 18 19 19 21 22
25 25 25 25 25 24 24 23 23 22 22 21 20 19 19 19 18 17 16 16 16 16 15 14 13 12 11 11 10 10 11 10 11 11 11 12 13 14 15 17 18 19 21 22
26 26 26 27 27 26 25 25 25 24 23 22 22 21 21 21 20 20 20 19 18 19 17 15 14 14 13 12 11 11 11 11 12 12 12 12 13 14 15 17 18 18 20 20
28 28 29 28 27 27 26 26 26 26 25 24 24 23 22 21 21 21 21 20 20 20 18 17 15 14 14 13 13 12 12 12 13 13 13 14 14 15 16 17 18 19 19 20
31 31 30 29 28 28 28 27 27 27 26 25 25 24 23 23 23 22 22 21 21 20 19 18 18 17 15 15 14 14 13 14 14 14 15 14 15 15 16 17 18 18 19 20
34 33 33 31 30 29 28 28 27 27 26 25 25 25 25 25 25 25 24 23 22 22 21 21 20 19 18 17 16 15 15 15 15 15 14 15 15 16 17 18 19 20 21 22
34 34 33 31 31 30 29 27 26 26 26 26 26 26 26 26 25 25 24 24 23 23 22 22 21 21 20 19 18 17 17 17 16 16 16 16 17 18 19 20 20 21 22 23
33 33 32 30 30 28 28 27 26 26 26 26 25 25 25 25 24 24 24 24 24 24 23 22 21 21 20 19 20 19 18 18 17 17 18 18 19 19 20 21 21 22 23 24
31 30 29 29 29 27 26 26 26 26 26 26 26 25 25 25 24 24 24 24 24 23 23 22 22 22 22 21 20 20 20 19 19 19 19 20 21 21 22 23 23 24 24 25
28 28 26 26 25 25 25 25 25 26 25 25 24 24 24 24 24 23 23 23 23 22 21 21 21 21 21 22 21 21 20 20 20 21 21 22 23 23 23 23 24 25 26 26
27 26 25 24 24 24 24 24 25 25 25 24 23 23 23 23 23 22 22 22 22 22 22 21 21 20 20 20 20 21 21 21 22 22 23 24 24 24 25 26 26 26 27 27
25 25 25 23 23 23 23 24 24 24 25 24 22 22 22 22 21 21 21 20 20 20 20 20 21 21 20 20 21 22 22 22 22 22 23 24 25 25 26 26 26 27 28 29
23 23 23 22 21 22 22 22 22 22 21 20 19 19 20 20 20 20 19 19 19 20 19 20 20 19 19 20 21 21 21 21 21 22 23 24 25 26 26 27 28 29 30 31
22 22 22 21 20 19 19 19 19 19 18 18 19 19 18 18 18 18 18 18 18 19 19 19 19 19 19 19 19 20 20 21 22 22 22 22 23 24 25 26 27 28 29 31
22 21 20 19 18 17 16 16 16 16 17 17 17 16 16 16 16 16 17 17 17 17 17 17 18 18 18 18 18 18 18 19 19 20 21 22 23 25 26 27 28 29 29 31
21 20 19 18 17 17 15 14 14 14 14 14 14 14 14 14 14 15 15 15 15 16 16 17 16 16 16 16 16 17 18 18 20 20 21 23 24 24 26 27 29 30 31 32
19 19 18 17 17 17 15 13 13 12 12 11 12 13 13 13 14 14 15 15 15 15 15 15 15 15 15 15 17 17 18 20 21 21 21 22 23 24 26 28 29 30 32 33
18 17 16 16 16 16 15 13 12 11 11 12 12 12 12 11 11 11 11 11 11 12 13 14 14 14 15 16 17 18 18 18 20 21 22 23 24 26 27 28 30 31 32 33
17 16 15 15 14 14 13 12 11 11 11 11 10 10 10 9 9 9 9 9 9 10 10 11 12 13 14 16 17 17 18 19 21 22 23 24 26 27 28 29 30 32 33 34
15 14 14 14 14 13 12 11 11 11 11 11 10 9 8 8 8 8 8 8 9 9 11 12 13 13 15 16 17 17 18 20 21 23 24 25 26 28 29 30 31 32 33 34
14 14 14 14 14 13 12 11 10 10 10 10 9 8 7 7 7 8 9 9 10 10 11 12 13 14 16 17 17 19 20 21 23 24 26 27 28 29 30 31 32 33 33 34
14 14 14 14 13 12 11 10 10 9 9 8 7 7 7 7 8 8 9 9 9 10 11 13 14 16 17 18 20 21 23 24 25 26 27 28 29 30 31 32 32 32 32 32
14 14 14 14 13 12 12 11 10 9 9 8 7 7 7 8 8 9 9 10 11 12 14 15 17 18 19 21 22 24 25 25 26 27 28 29 30 31 31 31 31 31 31 31
15 14 14 14 13 12 12 11 10 9 9 8 8 8 9 9 10 10 11 12 13 15 16 17 19 20 21 23 24 25 26 27 28 29 30 30 31 31 31 31 31 30 30 30
14 13 13 12 12 11 10 10 10 10 9 9 9 9 9 10 11 12 13 14 16 17 18 20 21 23 24 25 26 27 28 29 29 30 30 30 30 30 30 30 29 29 29 29
14 13 13 12 11 11 10 10 9 9 9 9 9 10 11 12 13 15 16 17 19 20 21 23 24 25 26 27 28 28 29 29 30 30 29 29 29 29 28 28 28 27 27 27
14 13 12 12 12 11 10 9 9 9 10 10 11 12 13 14 16 17 19 20 21 22 24 25 26 26 27 28 28 28 28 28 28 28 28 28 27 27 26 26 25 25 25 25

GEFSNGP_500_meanwind_144.txt.gz
Wind_Speed
23 22 21 20 20 21 20 18 17 17 17 16 15 15 16 16 16 16 16 16 16 15 15 14 14 13 13 12 12 11 11 11 12 12 12 12 13 14 16 17 19 20 20 21
24 23 22 22 22 22 20 19 19 18 19 18 16 16 16 16 16 16 16 17 17 17 16 15 15 15 14 14 13 12 12 12 12 12 12 13 13 14 15 17 18 20 21 21
24 24 23 24 24 23 22 21 20 19 20 19 19 18 18 18 17 17 17 17 18 17 17 17 16 16 16 16 15 14 13 13 13 13 13 13 14 15 16 17 17 18 20 21
24 25 25 26 25 23 22 22 21 21 20 20 20 20 20 20 19 19 19 19 20 19 18 18 18 18 18 17 16 15 14 14 14 14 14 15 15 15 16 17 18 19 20 21
25 25 26 27 24 24 23 22 22 22 21 21 21 21 22 21 21 21 21 21 21 21 20 20 19 19 19 19 18 17 16 16 16 16 16 16 16 16 16 17 18 19 19 21
28 25 26 27 24 24 24 24 22 22 22 22 22 23 22 22 22 23 23 23 22 22 22 22 21 20 20 20 19 18 18 18 17 16 16 16 17 17 18 18 19 20 20 21
29 27 28 28 25 25 26 26 23 23 23 23 23 23 23 23 24 24 24 24 23 23 23 22 22 22 21 21 20 20 19 19 19 19 18 18 18 18 19 20 20 21 22 22
30 28 30 28 27 28 27 25 25 24 24 24 24 24 24 23 24 24 24 24 24 23 23 22 22 22 22 22 21 21 20 19 19 19 20 19 19 19 19 19 20 21 23 24
32 31 30 28 27 27 27 27 26 25 25 25 25 25 25 24 24 24 24 24 24 24 24 23 23 23 22 22 21 21 21 20 20 20 20 20 20 21 21 21 22 23 24 25
30 30 29 28 28 28 27 27 27 26 26 26 26 26 26 25 24 24 24 24 24 23 23 23 22 22 22 22 21 21 21 21 21 21 21 21 22 23 23 23 24 24 24 24
31 30 29 29 28 28 27 27 26 26 26 26 26 25 24 24 24 25 25 24 23 22 22 22 22 21 21 22 22 22 22 22 22 22 22 22 23 24 25 24 24 24 24 25
30 29 29 28 28 27 27 26 25 25 25 25 24 23 23 23 23 23 23 23 23 22 22 22 22 22 21 21 21 21 22 23 23 22 22 22 23 24 24 24 24 25 26 27
28 28 27 26 26 26 26 25 24 24 24 23 23 22 22 22 21 21 21 22 21 21 21 21 20 20 20 20 20 21 21 22 22 22 22 22 23 24 25 25 25 26 27 28
27 26 26 25 25 24 24 23 23 22 21 21 21 21 21 21 21 21 20 21 20 20 20 19 19 19 20 20 20 20 20 20 20 20 21 21 22 23 24 25 25 25 26 27
25 25 25 24 24 23 22 22 21 20 20 20 20 20 20 20 20 20 19 19 18 18 18 18 18 18 18 18 18 18 18 19 19 20 21 21 22 23 23 24 24 25 26 27
24 24 23 23 22 21 21 20 20 19 19 19 19 19 19 19 18 18 18 17 16 16 17 17 17 17 17 18 18 17 18 18 18 19 20 21 21 21 22 23 25 25 26 27
23 23 22 22 21 20 20 19 18 18 18 18 18 18 17 17 16 16 16 16 16 16 16 16 16 16 17 17 17 17 17 17 17 18 18 19 20 21 22 24 25 25 26 26
22 22 22 21 20 20 19 18 17 17 17 17 16 16 15 15 15 14 14 14 14 14 14 14 14 14 14 15 15 15 16 17 18 18 19 20 22 22 23 24 24 25 26 27
21 20 19 19 19 18 18 18 17 16 16 16 15 14 14 14 14 14 13 12 12 12 12 12 12 13 14 14 14 15 16 16 17 18 19 21 22 23 24 24 25 26 26 27
20 20 19 19 18 18 17 17 16 15 15 14 14 13 13 12 12 12 12 11 11 11 11 12 12 13 14 14 14 15 15 16 17 19 20 21 22 23 24 24 25 25 26 27
19 19 19 18 18 17 16 16 16 15 14 13 13 12 12 11 11 11 11 11 10 10 10 11 12 13 13 14 14 16 17 18 19 20 21 22 22 24 24 25 25 26 26 27
18 19 19 18 18 17 17 16 15 15 14 14 13 13 12 11 10 10 10 9 9 10 11 11 12 13 14 14 16 17 19 20 21 21 22 23 24 25 25 26 26 26 27 27
18 18 18 18 18 17 16 15 15 14 14 13 12 11 10 9 8 8 8 8 9 10 11 12 13 14 15 17 18 19 20 21 22 23 24 25 25 25 26 26 26 26 27 27
17 17 17 17 17 16 15 15 14 13 12 12 10 9 8 8 8 8 8 9 10 11 12 14 14 16 17 19 20 20 21 22 23 24 24 25 25 25 25 25 25 26 26 26
17 16 16 16 16 16 15 15 14 12 11 10 9 9 8 8 9 9 10 11 11 12 14 15 16 18 19 20 21 21 22 23 23 23 23 23 24 24 24 25 25 25 25 25
17 17 16 16 15 15 14 13 12 11 11 10 9 9 9 9 10 10 10 11 12 14 16 17 18 19 20 20 21 22 22 22 22 22 23 24 24 24 25 25 25 24 24 24
17 17 16 15 14 13 12 11 11 11 10 10 9 9 9 9 10 11 12 13 15 16 17 18 19 19 20 21 22 22 22 22 23 23 24 24 24 25 25 24 24 23 23 23